Time,TemperatureF,DewpointF,PressureIn,WindDirection,WindDirectionDegrees,WindSpeedMPH,WindSpeedGustMPH,Humidity,HourlyPrecipIn,Conditions,Clouds,dailyrainin,SoftwareType,DateUTC
2013-01-05 00:00:00,24.4,20.3,30.40,SW,227,0.0,0.0,84,0.00,,,0.00,Wunderground v.1.15,2013-01-05 05:00:00,
2013-01-05 00:01:00,24.3,20.2,30.40,SW,227,0.0,0.0,84,0.00,,,0.00,Wunderground v.1.15,2013-01-05 05:01:00,
2013-01-05 00:05:00,24.0,19.9,30.40,SW,227,0.0,0.0,84,0.00,,,0.00,Wunderground v.1.15,2013-01-05 05:05:00,
2013-01-05 00:07:00,23.8,19.7,30.40,SW,227,0.0,0.0,84,0.00,,,0.00,Wunderground v.1.15,2013-01-05 05:07:00,
2013-01-05 00:08:00,23.7,19.3,30.40,SW,227,0.0,0.0,83,0.00,,,0.00,Wunderground v.1.15,2013-01-05 05:08:00,
2013-01-05 00:10:00,23.7,19.6,30.40,SW,227,0.0,0.0,84,0.00,,,0.00,Wunderground v.1.15,2013-01-05 05:10:00,
2013-01-05 00:12:00,23.7,19.6,30.40,SW,227,0.0,0.0,84,0.00,,,0.00,Wunderground v.1.15,2013-01-05 05:12:00,
2013-01-05 00:15:00,23.7,19.6,30.40,SW,227,0.0,0.0,84,0.00,,,0.00,Wunderground v.1.15,2013-01-05 05:15:00,
2013-01-05 00:18:00,23.7,19.6,30.40,SW,227,0.0,0.0,84,0.00,,,0.00,Wunderground v.1.15,2013-01-05 05:18:00,
2013-01-05 00:20:00,23.7,19.6,30.40,SW,227,0.0,0.0,84,0.00,,,0.00,Wunderground v.1.15,2013-01-05 05:20:00,
2013-01-05 00:21:00,23.7,19.6,30.40,SW,227,0.0,0.0,84,0.00,,,0.00,Wunderground v.1.15,2013-01-05 05:21:00,
2013-01-05 00:22:00,23.8,19.7,30.40,SW,227,0.0,0.0,84,0.00,,,0.00,Wunderground v.1.15,2013-01-05 05:22:00,
2013-01-05 00:25:00,24.0,19.9,30.40,SW,227,0.0,0.0,84,0.00,,,0.00,Wunderground v.1.15,2013-01-05 05:25:00,
2013-01-05 00:27:00,24.1,20.0,30.40,SW,227,0.0,0.0,84,0.00,,,0.00,Wunderground v.1.15,2013-01-05 05:27:00,
2013-01-05 00:30:00,24.1,20.0,30.40,SW,227,0.0,0.0,84,0.00,,,0.00,Wunderground v.1.15,2013-01-05 05:30:00,
2013-01-05 00:32:00,24.1,20.0,30.40,SW,227,0.0,0.0,84,0.00,,,0.00,Wunderground v.1.15,2013-01-05 05:32:00,
2013-01-05 00:35:00,24.3,20.2,30.40,SW,227,0.0,0.0,84,0.00,,,0.00,Wunderground v.1.15,2013-01-05 05:35:00,
2013-01-05 00:37:00,24.3,20.2,30.40,SW,227,0.0,0.0,84,0.00,,,0.00,Wunderground v.1.15,2013-01-05 05:37:00,
2013-01-05 00:38:00,24.3,19.9,30.40,SW,227,0.0,0.0,83,0.00,,,0.00,Wunderground v.1.15,2013-01-05 05:38:00,
2013-01-05 00:39:00,24.3,19.9,30.40,SW,227,0.0,0.0,83,0.00,,,0.00,Wunderground v.1.15,2013-01-05 05:39:00,
2013-01-05 00:41:00,24.4,20.3,30.40,SW,227,0.0,0.0,84,0.00,,,0.00,Wunderground v.1.15,2013-01-05 05:41:00,
2013-01-05 00:44:00,24.6,20.2,30.40,SW,227,0.0,0.0,83,0.00,,,0.00,Wunderground v.1.15,2013-01-05 05:44:00,
2013-01-05 00:45:00,24.6,20.2,30.40,SW,227,0.0,0.0,83,0.00,,,0.00,Wunderground v.1.15,2013-01-05 05:45:00,
2013-01-05 00:46:00,24.7,20.6,30.40,SW,227,0.0,0.0,84,0.00,,,0.00,Wunderground v.1.15,2013-01-05 05:46:00,
2013-01-05 00:51:00,25.2,20.8,30.40,SW,227,0.0,0.0,83,0.00,,,0.00,Wunderground v.1.15,2013-01-05 05:51:00,
2013-01-05 00:53:00,25.2,20.8,30.40,SW,227,0.0,0.0,83,0.00,,,0.00,Wunderground v.1.15,2013-01-05 05:53:00,
2013-01-05 00:54:00,25.2,20.8,30.40,SW,227,0.0,0.0,83,0.00,,,0.00,Wunderground v.1.15,2013-01-05 05:54:00,
2013-01-05 00:58:00,25.3,20.9,30.40,SW,227,0.0,0.0,83,0.00,,,0.00,Wunderground v.1.15,2013-01-05 05:58:00,
2013-01-05 01:00:00,25.2,20.5,30.39,SW,227,0.0,0.0,82,0.00,,,0.00,Wunderground v.1.15,2013-01-05 06:00:00,
2013-01-05 01:01:00,25.2,20.5,30.39,SW,227,0.0,0.0,82,0.00,,,0.00,Wunderground v.1.15,2013-01-05 06:01:00,
2013-01-05 01:04:00,25.2,20.5,30.39,SW,232,0.0,1.0,82,0.00,,,0.00,Wunderground v.1.15,2013-01-05 06:04:00,
2013-01-05 01:06:00,25.3,20.6,30.39,SW,232,0.0,1.0,82,0.00,,,0.00,Wunderground v.1.15,2013-01-05 06:06:00,
2013-01-05 01:07:00,25.3,20.6,30.39,SW,232,0.0,1.0,82,0.00,,,0.00,Wunderground v.1.15,2013-01-05 06:07:00,
2013-01-05 01:10:00,25.5,21.1,30.39,SW,230,0.0,0.0,83,0.00,,,0.00,Wunderground v.1.15,2013-01-05 06:10:00,
2013-01-05 01:13:00,25.6,20.9,30.39,SW,230,0.0,0.0,82,0.00,,,0.00,Wunderground v.1.15,2013-01-05 06:13:00,
2013-01-05 01:15:00,25.6,20.9,30.39,SW,230,0.0,0.0,82,0.00,,,0.00,Wunderground v.1.15,2013-01-05 06:15:00,
2013-01-05 01:17:00,25.5,20.5,30.39,SW,230,0.0,0.0,81,0.00,,,0.00,Wunderground v.1.15,2013-01-05 06:17:00,
2013-01-05 01:20:00,25.3,20.3,30.39,SW,230,0.0,0.0,81,0.00,,,0.00,Wunderground v.1.15,2013-01-05 06:20:00,
2013-01-05 01:21:00,25.3,20.3,30.39,SW,230,0.0,0.0,81,0.00,,,0.00,Wunderground v.1.15,2013-01-05 06:21:00,
2013-01-05 01:24:00,25.0,20.0,30.39,SW,230,0.0,0.0,81,0.00,,,0.00,Wunderground v.1.15,2013-01-05 06:24:00,
2013-01-05 01:25:00,24.9,19.9,30.39,SW,230,0.0,0.0,81,0.00,,,0.00,Wunderground v.1.15,2013-01-05 06:25:00,
2013-01-05 01:29:00,24.9,19.9,30.39,SW,230,0.0,0.0,81,0.00,,,0.00,Wunderground v.1.15,2013-01-05 06:29:00,
2013-01-05 01:31:00,24.7,19.7,30.39,SW,230,0.0,0.0,81,0.00,,,0.00,Wunderground v.1.15,2013-01-05 06:31:00,
2013-01-05 01:34:00,24.7,19.7,30.39,SW,230,0.0,0.0,81,0.00,,,0.00,Wunderground v.1.15,2013-01-05 06:34:00,
2013-01-05 01:36:00,24.6,19.6,30.39,SW,230,0.0,0.0,81,0.00,,,0.00,Wunderground v.1.15,2013-01-05 06:36:00,
2013-01-05 01:37:00,24.6,19.6,30.39,SW,230,0.0,0.0,81,0.00,,,0.00,Wunderground v.1.15,2013-01-05 06:37:00,
2013-01-05 01:39:00,24.4,19.4,30.39,SW,230,0.0,0.0,81,0.00,,,0.00,Wunderground v.1.15,2013-01-05 06:39:00,
2013-01-05 01:40:00,24.4,19.4,30.39,SW,230,0.0,0.0,81,0.00,,,0.00,Wunderground v.1.15,2013-01-05 06:40:00,
2013-01-05 01:41:00,24.3,19.3,30.39,SW,230,0.0,0.0,81,0.00,,,0.00,Wunderground v.1.15,2013-01-05 06:41:00,
2013-01-05 01:44:00,24.0,18.7,30.39,SW,230,0.0,0.0,80,0.00,,,0.00,Wunderground v.1.15,2013-01-05 06:44:00,
2013-01-05 01:46:00,23.8,18.5,30.39,SW,230,0.0,0.0,80,0.00,,,0.00,Wunderground v.1.15,2013-01-05 06:46:00,
2013-01-05 01:48:00,23.5,18.2,30.39,SW,230,0.0,0.0,80,0.00,,,0.00,Wunderground v.1.15,2013-01-05 06:48:00,
2013-01-05 01:49:00,23.4,18.1,30.39,SW,230,0.0,0.0,80,0.00,,,0.00,Wunderground v.1.15,2013-01-05 06:49:00,
2013-01-05 01:50:00,23.2,17.9,30.39,SW,230,0.0,0.0,80,0.00,,,0.00,Wunderground v.1.15,2013-01-05 06:50:00,
2013-01-05 01:51:00,23.0,17.7,30.39,SW,230,0.0,0.0,80,0.00,,,0.00,Wunderground v.1.15,2013-01-05 06:51:00,
2013-01-05 01:55:00,22.6,17.4,30.39,SW,230,0.0,0.0,80,0.00,,,0.00,Wunderground v.1.15,2013-01-05 06:55:00,
2013-01-05 01:58:00,22.3,17.1,30.39,SW,230,0.0,0.0,80,0.00,,,0.00,Wunderground v.1.15,2013-01-05 06:58:00,
2013-01-05 02:00:00,21.9,17.0,30.39,SW,230,0.0,0.0,81,0.00,,,0.00,Wunderground v.1.15,2013-01-05 07:00:00,
2013-01-05 02:03:00,21.6,16.7,30.39,SW,230,0.0,0.0,81,0.00,,,0.00,Wunderground v.1.15,2013-01-05 07:03:00,
2013-01-05 02:04:00,21.6,16.7,30.39,SW,230,0.0,0.0,81,0.00,,,0.00,Wunderground v.1.15,2013-01-05 07:04:00,
2013-01-05 02:06:00,21.5,16.6,30.39,SW,230,0.0,0.0,81,0.00,,,0.00,Wunderground v.1.15,2013-01-05 07:06:00,
2013-01-05 02:09:00,21.3,16.7,30.39,SW,230,0.0,0.0,82,0.00,,,0.00,Wunderground v.1.15,2013-01-05 07:09:00,
2013-01-05 02:10:00,21.1,16.5,30.39,SW,230,0.0,0.0,82,0.00,,,0.00,Wunderground v.1.15,2013-01-05 07:10:00,
2013-01-05 02:13:00,21.0,16.4,30.39,SW,230,0.0,0.0,82,0.00,,,0.00,Wunderground v.1.15,2013-01-05 07:13:00,
2013-01-05 02:15:00,20.7,16.1,30.39,SW,230,0.0,0.0,82,0.00,,,0.00,Wunderground v.1.15,2013-01-05 07:15:00,
2013-01-05 02:17:00,20.4,15.8,30.39,SW,230,0.0,0.0,82,0.00,,,0.00,Wunderground v.1.15,2013-01-05 07:17:00,
2013-01-05 02:18:00,20.2,15.6,30.39,SW,230,0.0,0.0,82,0.00,,,0.00,Wunderground v.1.15,2013-01-05 07:18:00,
2013-01-05 02:22:00,19.7,15.4,30.39,SW,230,0.0,0.0,83,0.00,,,0.00,Wunderground v.1.15,2013-01-05 07:22:00,
2013-01-05 02:24:00,19.4,15.1,30.39,SW,230,0.0,0.0,83,0.00,,,0.00,Wunderground v.1.15,2013-01-05 07:24:00,
2013-01-05 02:30:00,19.1,15.1,30.39,SW,230,0.0,0.0,84,0.00,,,0.00,Wunderground v.1.15,2013-01-05 07:30:00,
2013-01-05 02:31:00,19.1,15.1,30.39,SW,230,0.0,0.0,84,0.00,,,0.00,Wunderground v.1.15,2013-01-05 07:31:00,
2013-01-05 02:36:00,18.8,14.8,30.39,SW,230,0.0,0.0,84,0.00,,,0.00,Wunderground v.1.15,2013-01-05 07:36:00,
2013-01-05 02:37:00,18.6,14.6,30.39,SW,230,0.0,0.0,84,0.00,,,0.00,Wunderground v.1.15,2013-01-05 07:37:00,
2013-01-05 02:41:00,18.6,14.6,30.39,SW,230,0.0,0.0,84,0.00,,,0.00,Wunderground v.1.15,2013-01-05 07:41:00,
2013-01-05 02:42:00,18.6,14.6,30.39,SW,230,0.0,0.0,84,0.00,,,0.00,Wunderground v.1.15,2013-01-05 07:42:00,
2013-01-05 02:43:00,18.6,14.8,30.39,SW,230,0.0,0.0,85,0.00,,,0.00,Wunderground v.1.15,2013-01-05 07:43:00,
2013-01-05 02:45:00,18.6,14.8,30.39,SW,230,0.0,0.0,85,0.00,,,0.00,Wunderground v.1.15,2013-01-05 07:45:00,
2013-01-05 02:46:00,18.5,14.7,30.39,SW,230,0.0,0.0,85,0.00,,,0.00,Wunderground v.1.15,2013-01-05 07:46:00,
2013-01-05 02:47:00,18.5,14.7,30.39,SW,230,0.0,0.0,85,0.00,,,0.00,Wunderground v.1.15,2013-01-05 07:47:00,
2013-01-05 02:51:00,18.5,14.7,30.39,SW,230,0.0,0.0,85,0.00,,,0.00,Wunderground v.1.15,2013-01-05 07:51:00,
2013-01-05 02:54:00,18.3,14.5,30.39,SW,230,0.0,0.0,85,0.00,,,0.00,Wunderground v.1.15,2013-01-05 07:54:00,
2013-01-05 02:57:00,18.0,14.3,30.39,SW,230,0.0,0.0,85,0.00,,,0.00,Wunderground v.1.15,2013-01-05 07:57:00,
2013-01-05 02:59:00,17.7,14.0,30.39,SW,230,0.0,0.0,85,0.00,,,0.00,Wunderground v.1.15,2013-01-05 07:59:00,
2013-01-05 03:00:00,17.7,14.0,30.40,SW,230,0.0,0.0,85,0.00,,,0.00,Wunderground v.1.15,2013-01-05 08:00:00,
2013-01-05 03:04:00,17.5,13.8,30.40,SW,230,0.0,0.0,85,0.00,,,0.00,Wunderground v.1.15,2013-01-05 08:04:00,
2013-01-05 03:05:00,17.5,13.8,30.40,SW,230,0.0,0.0,85,0.00,,,0.00,Wunderground v.1.15,2013-01-05 08:05:00,
2013-01-05 03:07:00,17.5,13.8,30.40,SW,230,0.0,0.0,85,0.00,,,0.00,Wunderground v.1.15,2013-01-05 08:07:00,
2013-01-05 03:11:00,17.5,14.0,30.40,SW,230,0.0,0.0,86,0.00,,,0.00,Wunderground v.1.15,2013-01-05 08:11:00,
2013-01-05 03:12:00,17.7,14.2,30.40,SW,230,0.0,0.0,86,0.00,,,0.00,Wunderground v.1.15,2013-01-05 08:12:00,
2013-01-05 03:15:00,17.7,14.2,30.40,SW,230,0.0,0.0,86,0.00,,,0.00,Wunderground v.1.15,2013-01-05 08:15:00,
2013-01-05 03:16:00,17.7,14.2,30.40,SW,230,0.0,0.0,86,0.00,,,0.00,Wunderground v.1.15,2013-01-05 08:16:00,
2013-01-05 03:19:00,17.7,14.2,30.40,SW,230,0.0,0.0,86,0.00,,,0.00,Wunderground v.1.15,2013-01-05 08:19:00,
2013-01-05 03:22:00,17.5,14.0,30.40,SW,230,0.0,0.0,86,0.00,,,0.00,Wunderground v.1.15,2013-01-05 08:22:00,
2013-01-05 03:24:00,17.4,13.9,30.40,SW,230,0.0,0.0,86,0.00,,,0.00,Wunderground v.1.15,2013-01-05 08:24:00,
2013-01-05 03:27:00,17.4,13.9,30.40,SW,230,0.0,0.0,86,0.00,,,0.00,Wunderground v.1.15,2013-01-05 08:27:00,
2013-01-05 03:29:00,17.2,13.7,30.40,SW,230,0.0,0.0,86,0.00,,,0.00,Wunderground v.1.15,2013-01-05 08:29:00,
2013-01-05 03:32:00,17.0,13.5,30.41,SW,230,0.0,0.0,86,0.00,,,0.00,Wunderground v.1.15,2013-01-05 08:32:00,
2013-01-05 03:33:00,17.0,13.5,30.41,SW,230,0.0,0.0,86,0.00,,,0.00,Wunderground v.1.15,2013-01-05 08:33:00,
2013-01-05 03:35:00,16.9,13.4,30.41,SW,230,0.0,0.0,86,0.00,,,0.00,Wunderground v.1.15,2013-01-05 08:35:00,
2013-01-05 03:40:00,16.6,13.1,30.41,SW,230,0.0,0.0,86,0.00,,,0.00,Wunderground v.1.15,2013-01-05 08:40:00,
2013-01-05 03:41:00,16.4,12.9,30.41,SW,230,0.0,0.0,86,0.00,,,0.00,Wunderground v.1.15,2013-01-05 08:41:00,
2013-01-05 03:42:00,16.4,12.9,30.41,SW,230,0.0,0.0,86,0.00,,,0.00,Wunderground v.1.15,2013-01-05 08:42:00,
2013-01-05 03:45:00,16.4,13.2,30.41,SW,230,0.0,0.0,87,0.00,,,0.00,Wunderground v.1.15,2013-01-05 08:45:00,
2013-01-05 03:50:00,16.4,12.9,30.41,SW,230,0.0,0.0,86,0.00,,,0.00,Wunderground v.1.15,2013-01-05 08:50:00,
2013-01-05 03:51:00,16.2,13.0,30.41,SW,230,0.0,0.0,87,0.00,,,0.00,Wunderground v.1.15,2013-01-05 08:51:00,
2013-01-05 03:52:00,16.4,13.2,30.41,SW,230,0.0,0.0,87,0.00,,,0.00,Wunderground v.1.15,2013-01-05 08:52:00,
2013-01-05 03:54:00,16.4,13.2,30.41,SW,230,0.0,0.0,87,0.00,,,0.00,Wunderground v.1.15,2013-01-05 08:54:00,
2013-01-05 03:59:00,16.4,13.2,30.41,SW,230,0.0,0.0,87,0.00,,,0.00,Wunderground v.1.15,2013-01-05 08:59:00,
2013-01-05 04:00:00,16.4,13.2,30.40,SW,230,0.0,0.0,87,0.00,,,0.00,Wunderground v.1.15,2013-01-05 09:00:00,
2013-01-05 04:01:00,16.4,13.2,30.40,SW,230,0.0,0.0,87,0.00,,,0.00,Wunderground v.1.15,2013-01-05 09:01:00,
2013-01-05 04:05:00,16.2,13.0,30.40,SW,230,0.0,0.0,87,0.00,,,0.00,Wunderground v.1.15,2013-01-05 09:05:00,
2013-01-05 04:06:00,16.1,12.9,30.40,SW,230,0.0,0.0,87,0.00,,,0.00,Wunderground v.1.15,2013-01-05 09:06:00,
2013-01-05 04:07:00,16.1,12.9,30.40,SW,230,0.0,0.0,87,0.00,,,0.00,Wunderground v.1.15,2013-01-05 09:07:00,
2013-01-05 04:11:00,16.1,12.9,30.40,SW,230,0.0,0.0,87,0.00,,,0.00,Wunderground v.1.15,2013-01-05 09:11:00,
2013-01-05 04:12:00,16.1,12.9,30.40,SW,230,0.0,0.0,87,0.00,,,0.00,Wunderground v.1.15,2013-01-05 09:12:00,
2013-01-05 04:14:00,15.9,12.7,30.40,SW,230,0.0,0.0,87,0.00,,,0.00,Wunderground v.1.15,2013-01-05 09:14:00,
2013-01-05 04:16:00,15.9,12.7,30.41,SW,230,0.0,0.0,87,0.00,,,0.00,Wunderground v.1.15,2013-01-05 09:16:00,
2013-01-05 04:19:00,15.9,12.7,30.41,SW,230,0.0,0.0,87,0.00,,,0.00,Wunderground v.1.15,2013-01-05 09:19:00,
2013-01-05 04:20:00,15.9,12.7,30.41,SW,230,0.0,0.0,87,0.00,,,0.00,Wunderground v.1.15,2013-01-05 09:20:00,
2013-01-05 04:21:00,15.9,12.7,30.41,SW,230,0.0,0.0,87,0.00,,,0.00,Wunderground v.1.15,2013-01-05 09:21:00,
2013-01-05 04:23:00,15.9,12.7,30.41,SW,230,0.0,0.0,87,0.00,,,0.00,Wunderground v.1.15,2013-01-05 09:23:00,
2013-01-05 04:25:00,15.9,12.7,30.41,SW,230,0.0,0.0,87,0.00,,,0.00,Wunderground v.1.15,2013-01-05 09:25:00,
2013-01-05 04:28:00,15.7,12.5,30.41,SW,230,0.0,0.0,87,0.00,,,0.00,Wunderground v.1.15,2013-01-05 09:28:00,
2013-01-05 04:29:00,15.6,12.4,30.41,SW,230,0.0,0.0,87,0.00,,,0.00,Wunderground v.1.15,2013-01-05 09:29:00,
2013-01-05 04:33:00,15.6,12.4,30.41,SW,230,0.0,0.0,87,0.00,,,0.00,Wunderground v.1.15,2013-01-05 09:33:00,
2013-01-05 04:36:00,15.6,12.4,30.41,SW,230,0.0,0.0,87,0.00,,,0.00,Wunderground v.1.15,2013-01-05 09:36:00,
2013-01-05 04:37:00,15.4,12.2,30.41,SW,230,0.0,0.0,87,0.00,,,0.00,Wunderground v.1.15,2013-01-05 09:37:00,
2013-01-05 04:42:00,15.4,12.2,30.41,SW,230,0.0,0.0,87,0.00,,,0.00,Wunderground v.1.15,2013-01-05 09:42:00,
2013-01-05 04:44:00,15.3,12.1,30.41,SW,230,0.0,0.0,87,0.00,,,0.00,Wunderground v.1.15,2013-01-05 09:44:00,
2013-01-05 04:45:00,15.3,12.1,30.40,SW,230,0.0,0.0,87,0.00,,,0.00,Wunderground v.1.15,2013-01-05 09:45:00,
2013-01-05 04:50:00,15.3,12.1,30.40,SW,230,0.0,0.0,87,0.00,,,0.00,Wunderground v.1.15,2013-01-05 09:50:00,
2013-01-05 04:54:00,15.3,12.1,30.40,SW,230,0.0,0.0,87,0.00,,,0.00,Wunderground v.1.15,2013-01-05 09:54:00,
2013-01-05 04:56:00,15.3,12.1,30.40,SW,230,0.0,0.0,87,0.00,,,0.00,Wunderground v.1.15,2013-01-05 09:56:00,
2013-01-05 04:57:00,15.3,12.1,30.40,SW,230,0.0,0.0,87,0.00,,,0.00,Wunderground v.1.15,2013-01-05 09:57:00,
2013-01-05 04:58:00,15.3,12.1,30.40,SW,230,0.0,0.0,87,0.00,,,0.00,Wunderground v.1.15,2013-01-05 09:58:00,
2013-01-05 05:01:00,15.3,12.1,30.40,SW,230,0.0,0.0,87,0.00,,,0.00,Wunderground v.1.15,2013-01-05 10:01:00,
2013-01-05 05:02:00,15.3,12.1,30.40,SW,230,0.0,0.0,87,0.00,,,0.00,Wunderground v.1.15,2013-01-05 10:02:00,
2013-01-05 05:05:00,15.3,12.1,30.40,SW,230,0.0,0.0,87,0.00,,,0.00,Wunderground v.1.15,2013-01-05 10:05:00,
2013-01-05 05:07:00,15.1,11.9,30.40,SW,230,0.0,0.0,87,0.00,,,0.00,Wunderground v.1.15,2013-01-05 10:07:00,
2013-01-05 05:09:00,14.9,11.7,30.40,SW,230,0.0,0.0,87,0.00,,,0.00,Wunderground v.1.15,2013-01-05 10:09:00,
2013-01-05 05:10:00,14.9,11.7,30.40,SW,230,0.0,0.0,87,0.00,,,0.00,Wunderground v.1.15,2013-01-05 10:10:00,
2013-01-05 05:14:00,14.5,11.3,30.40,SW,230,0.0,0.0,87,0.00,,,0.00,Wunderground v.1.15,2013-01-05 10:14:00,
2013-01-05 05:15:00,14.5,11.1,30.40,SW,230,0.0,0.0,86,0.00,,,0.00,Wunderground v.1.15,2013-01-05 10:15:00,
2013-01-05 05:17:00,14.1,10.7,30.40,SW,230,0.0,0.0,86,0.00,,,0.00,Wunderground v.1.15,2013-01-05 10:17:00,
2013-01-05 05:20:00,14.0,10.6,30.40,SW,230,0.0,0.0,86,0.00,,,0.00,Wunderground v.1.15,2013-01-05 10:20:00,
2013-01-05 05:21:00,13.8,10.4,30.40,SW,230,0.0,0.0,86,0.00,,,0.00,Wunderground v.1.15,2013-01-05 10:21:00,
2013-01-05 05:25:00,13.8,10.4,30.40,SW,230,0.0,0.0,86,0.00,,,0.00,Wunderground v.1.15,2013-01-05 10:25:00,
2013-01-05 05:26:00,13.8,10.6,30.40,SW,230,0.0,0.0,87,0.00,,,0.00,Wunderground v.1.15,2013-01-05 10:26:00,
2013-01-05 05:27:00,13.6,10.5,30.40,SW,230,0.0,0.0,87,0.00,,,0.00,Wunderground v.1.15,2013-01-05 10:27:00,
2013-01-05 05:31:00,14.0,10.8,30.41,SW,230,0.0,0.0,87,0.00,,,0.00,Wunderground v.1.15,2013-01-05 10:31:00,
2013-01-05 05:32:00,14.0,10.8,30.41,SW,230,0.0,0.0,87,0.00,,,0.00,Wunderground v.1.15,2013-01-05 10:32:00,
2013-01-05 05:33:00,14.0,10.8,30.41,SW,230,0.0,0.0,87,0.00,,,0.00,Wunderground v.1.15,2013-01-05 10:33:00,
2013-01-05 05:35:00,14.1,10.9,30.41,SW,230,0.0,0.0,87,0.00,,,0.00,Wunderground v.1.15,2013-01-05 10:35:00,
2013-01-05 05:37:00,14.1,10.9,30.41,SW,230,0.0,0.0,87,0.00,,,0.00,Wunderground v.1.15,2013-01-05 10:37:00,
2013-01-05 05:39:00,14.1,10.9,30.41,SW,230,0.0,0.0,87,0.00,,,0.00,Wunderground v.1.15,2013-01-05 10:39:00,
2013-01-05 05:40:00,14.1,10.9,30.41,SW,230,0.0,0.0,87,0.00,,,0.00,Wunderground v.1.15,2013-01-05 10:40:00,
2013-01-05 05:43:00,14.1,10.9,30.41,SW,230,0.0,0.0,87,0.00,,,0.00,Wunderground v.1.15,2013-01-05 10:43:00,
2013-01-05 05:44:00,14.3,11.1,30.41,SW,230,0.0,0.0,87,0.00,,,0.00,Wunderground v.1.15,2013-01-05 10:44:00,
2013-01-05 05:46:00,14.3,11.1,30.41,SW,230,0.0,0.0,87,0.00,,,0.00,Wunderground v.1.15,2013-01-05 10:46:00,
2013-01-05 05:48:00,14.3,11.1,30.41,SW,230,0.0,0.0,87,0.00,,,0.00,Wunderground v.1.15,2013-01-05 10:48:00,
2013-01-05 05:53:00,14.6,11.4,30.41,SW,230,0.0,0.0,87,0.00,,,0.00,Wunderground v.1.15,2013-01-05 10:53:00,
2013-01-05 05:55:00,14.6,11.4,30.41,SW,230,0.0,0.0,87,0.00,,,0.00,Wunderground v.1.15,2013-01-05 10:55:00,
2013-01-05 05:58:00,14.3,11.1,30.41,SW,230,0.0,0.0,87,0.00,,,0.00,Wunderground v.1.15,2013-01-05 10:58:00,
2013-01-05 06:00:00,14.5,11.3,30.41,SW,230,0.0,0.0,87,0.00,,,0.00,Wunderground v.1.15,2013-01-05 11:00:00,
2013-01-05 06:01:00,14.5,11.3,30.41,SW,230,0.0,0.0,87,0.00,,,0.00,Wunderground v.1.15,2013-01-05 11:01:00,
2013-01-05 06:06:00,14.5,11.3,30.41,SW,230,0.0,0.0,87,0.00,,,0.00,Wunderground v.1.15,2013-01-05 11:06:00,
2013-01-05 06:07:00,14.5,11.3,30.41,SW,230,0.0,0.0,87,0.00,,,0.00,Wunderground v.1.15,2013-01-05 11:07:00,
2013-01-05 06:08:00,14.5,11.3,30.41,SW,230,0.0,0.0,87,0.00,,,0.00,Wunderground v.1.15,2013-01-05 11:08:00,
2013-01-05 06:09:00,14.5,11.3,30.41,SW,230,0.0,0.0,87,0.00,,,0.00,Wunderground v.1.15,2013-01-05 11:09:00,
2013-01-05 06:14:00,14.6,11.4,30.41,SW,230,0.0,0.0,87,0.00,,,0.00,Wunderground v.1.15,2013-01-05 11:14:00,
2013-01-05 06:15:00,14.6,11.4,30.41,SW,230,0.0,0.0,87,0.00,,,0.00,Wunderground v.1.15,2013-01-05 11:15:00,
2013-01-05 06:16:00,14.5,11.3,30.41,SW,230,0.0,0.0,87,0.00,,,0.00,Wunderground v.1.15,2013-01-05 11:16:00,
2013-01-05 06:19:00,14.1,10.9,30.41,SW,230,0.0,0.0,87,0.00,,,0.00,Wunderground v.1.15,2013-01-05 11:19:00,
2013-01-05 06:21:00,14.0,10.8,30.41,SW,230,0.0,0.0,87,0.00,,,0.00,Wunderground v.1.15,2013-01-05 11:21:00,
2013-01-05 06:24:00,14.0,10.8,30.41,SW,230,0.0,0.0,87,0.00,,,0.00,Wunderground v.1.15,2013-01-05 11:24:00,
2013-01-05 06:25:00,13.8,10.6,30.41,SW,230,0.0,0.0,87,0.00,,,0.00,Wunderground v.1.15,2013-01-05 11:25:00,
2013-01-05 06:29:00,13.8,10.6,30.41,SW,230,0.0,0.0,87,0.00,,,0.00,Wunderground v.1.15,2013-01-05 11:29:00,
2013-01-05 06:30:00,13.8,10.6,30.41,SW,230,0.0,0.0,87,0.00,,,0.00,Wunderground v.1.15,2013-01-05 11:30:00,
2013-01-05 06:32:00,13.8,10.6,30.41,SW,230,0.0,0.0,87,0.00,,,0.00,Wunderground v.1.15,2013-01-05 11:32:00,
2013-01-05 06:33:00,13.6,10.5,30.41,SW,230,0.0,0.0,87,0.00,,,0.00,Wunderground v.1.15,2013-01-05 11:33:00,
2013-01-05 06:35:00,13.6,10.5,30.41,SW,230,0.0,0.0,87,0.00,,,0.00,Wunderground v.1.15,2013-01-05 11:35:00,
2013-01-05 06:37:00,13.6,10.5,30.41,SW,230,0.0,0.0,87,0.00,,,0.00,Wunderground v.1.15,2013-01-05 11:37:00,
2013-01-05 06:39:00,13.6,10.5,30.41,SW,230,0.0,0.0,87,0.00,,,0.00,Wunderground v.1.15,2013-01-05 11:39:00,
2013-01-05 06:40:00,13.6,10.5,30.41,SW,230,0.0,0.0,87,0.00,,,0.00,Wunderground v.1.15,2013-01-05 11:40:00,
2013-01-05 06:41:00,13.6,10.5,30.41,SW,230,0.0,0.0,87,0.00,,,0.00,Wunderground v.1.15,2013-01-05 11:41:00,
2013-01-05 06:44:00,13.8,10.6,30.41,SW,230,0.0,0.0,87,0.00,,,0.00,Wunderground v.1.15,2013-01-05 11:44:00,
2013-01-05 06:45:00,13.8,10.6,30.41,SW,230,0.0,0.0,87,0.00,,,0.00,Wunderground v.1.15,2013-01-05 11:45:00,
2013-01-05 06:48:00,13.8,10.6,30.41,SW,230,0.0,0.0,87,0.00,,,0.00,Wunderground v.1.15,2013-01-05 11:48:00,
2013-01-05 06:49:00,13.8,10.6,30.41,SW,230,0.0,0.0,87,0.00,,,0.00,Wunderground v.1.15,2013-01-05 11:49:00,
2013-01-05 06:50:00,13.8,10.6,30.41,SW,230,0.0,0.0,87,0.00,,,0.00,Wunderground v.1.15,2013-01-05 11:50:00,
2013-01-05 06:53:00,13.8,10.6,30.41,SW,230,0.0,0.0,87,0.00,,,0.00,Wunderground v.1.15,2013-01-05 11:53:00,
2013-01-05 06:55:00,13.8,10.6,30.41,SW,230,0.0,0.0,87,0.00,,,0.00,Wunderground v.1.15,2013-01-05 11:55:00,
2013-01-05 06:57:00,13.6,10.5,30.41,SW,230,0.0,0.0,87,0.00,,,0.00,Wunderground v.1.15,2013-01-05 11:57:00,
2013-01-05 07:00:00,13.6,10.5,30.41,SW,230,0.0,0.0,87,0.00,,,0.00,Wunderground v.1.15,2013-01-05 12:00:00,
2013-01-05 07:01:00,13.6,10.5,30.41,SW,230,0.0,0.0,87,0.00,,,0.00,Wunderground v.1.15,2013-01-05 12:01:00,
2013-01-05 07:03:00,13.6,10.5,30.41,SW,230,0.0,0.0,87,0.00,,,0.00,Wunderground v.1.15,2013-01-05 12:03:00,
2013-01-05 07:06:00,13.8,10.6,30.41,SW,230,0.0,0.0,87,0.00,,,0.00,Wunderground v.1.15,2013-01-05 12:06:00,
2013-01-05 07:07:00,13.8,10.6,30.41,SW,230,0.0,0.0,87,0.00,,,0.00,Wunderground v.1.15,2013-01-05 12:07:00,
2013-01-05 07:12:00,13.8,10.6,30.41,SW,230,0.0,0.0,87,0.00,,,0.00,Wunderground v.1.15,2013-01-05 12:12:00,
2013-01-05 07:13:00,13.8,10.6,30.41,SW,230,0.0,0.0,87,0.00,,,0.00,Wunderground v.1.15,2013-01-05 12:13:00,
2013-01-05 07:14:00,13.8,10.6,30.41,SW,230,0.0,0.0,87,0.00,,,0.00,Wunderground v.1.15,2013-01-05 12:14:00,
2013-01-05 07:19:00,13.6,10.5,30.41,SW,230,0.0,0.0,87,0.00,,,0.00,Wunderground v.1.15,2013-01-05 12:19:00,
2013-01-05 07:21:00,13.6,10.5,30.41,SW,230,0.0,0.0,87,0.00,,,0.00,Wunderground v.1.15,2013-01-05 12:21:00,
2013-01-05 07:22:00,13.4,10.3,30.41,SW,230,0.0,0.0,87,0.00,,,0.00,Wunderground v.1.15,2013-01-05 12:22:00,
2013-01-05 07:25:00,13.4,10.3,30.41,SW,230,0.0,0.0,87,0.00,,,0.00,Wunderground v.1.15,2013-01-05 12:25:00,
2013-01-05 07:26:00,13.4,10.0,30.41,SW,230,0.0,0.0,86,0.00,,,0.00,Wunderground v.1.15,2013-01-05 12:26:00,
2013-01-05 07:27:00,13.4,10.0,30.41,SW,230,0.0,0.0,86,0.00,,,0.00,Wunderground v.1.15,2013-01-05 12:27:00,
2013-01-05 07:28:00,13.3,9.9,30.41,SW,230,0.0,0.0,86,0.00,,,0.00,Wunderground v.1.15,2013-01-05 12:28:00,
2013-01-05 07:32:00,13.3,9.9,30.41,SW,230,0.0,0.0,86,0.00,,,0.00,Wunderground v.1.15,2013-01-05 12:32:00,
2013-01-05 07:33:00,13.3,9.9,30.41,SW,230,0.0,0.0,86,0.00,,,0.00,Wunderground v.1.15,2013-01-05 12:33:00,
2013-01-05 07:34:00,13.3,9.9,30.41,SW,230,0.0,0.0,86,0.00,,,0.00,Wunderground v.1.15,2013-01-05 12:34:00,
2013-01-05 07:38:00,13.4,10.3,30.41,SW,230,0.0,0.0,87,0.00,,,0.00,Wunderground v.1.15,2013-01-05 12:38:00,
2013-01-05 07:39:00,13.4,10.3,30.41,SW,230,0.0,0.0,87,0.00,,,0.00,Wunderground v.1.15,2013-01-05 12:39:00,
2013-01-05 07:40:00,13.4,10.3,30.41,SW,230,0.0,0.0,87,0.00,,,0.00,Wunderground v.1.15,2013-01-05 12:40:00,
2013-01-05 07:43:00,13.3,9.9,30.41,SW,230,0.0,0.0,86,0.00,,,0.00,Wunderground v.1.15,2013-01-05 12:43:00,
2013-01-05 07:44:00,13.3,9.9,30.41,SW,230,0.0,0.0,86,0.00,,,0.00,Wunderground v.1.15,2013-01-05 12:44:00,
2013-01-05 07:46:00,13.1,9.7,30.40,SW,230,0.0,0.0,86,0.00,,,0.00,Wunderground v.1.15,2013-01-05 12:46:00,
2013-01-05 07:50:00,13.3,10.2,30.40,SW,230,0.0,0.0,87,0.00,,,0.00,Wunderground v.1.15,2013-01-05 12:50:00,
2013-01-05 07:51:00,13.3,10.2,30.40,SW,230,0.0,0.0,87,0.00,,,0.00,Wunderground v.1.15,2013-01-05 12:51:00,
2013-01-05 07:52:00,13.3,10.2,30.40,SW,230,0.0,0.0,87,0.00,,,0.00,Wunderground v.1.15,2013-01-05 12:52:00,
2013-01-05 07:54:00,13.3,10.2,30.40,SW,230,0.0,0.0,87,0.00,,,0.00,Wunderground v.1.15,2013-01-05 12:54:00,
2013-01-05 07:58:00,13.3,10.2,30.40,SW,230,0.0,0.0,87,0.00,,,0.00,Wunderground v.1.15,2013-01-05 12:58:00,
2013-01-05 07:59:00,13.3,10.2,30.40,SW,230,0.0,0.0,87,0.00,,,0.00,Wunderground v.1.15,2013-01-05 12:59:00,
2013-01-05 08:00:00,13.3,10.2,30.40,SW,230,0.0,0.0,87,0.00,,,0.00,Wunderground v.1.15,2013-01-05 13:00:00,
2013-01-05 08:03:00,13.4,10.3,30.40,SW,230,0.0,0.0,87,0.00,,,0.00,Wunderground v.1.15,2013-01-05 13:03:00,
2013-01-05 08:06:00,13.8,10.6,30.40,SW,230,0.0,0.0,87,0.00,,,0.00,Wunderground v.1.15,2013-01-05 13:06:00,
2013-01-05 08:07:00,14.0,10.8,30.40,SW,230,0.0,0.0,87,0.00,,,0.00,Wunderground v.1.15,2013-01-05 13:07:00,
2013-01-05 08:09:00,14.0,10.8,30.40,SW,230,0.0,0.0,87,0.00,,,0.00,Wunderground v.1.15,2013-01-05 13:09:00,
2013-01-05 08:11:00,14.0,10.8,30.40,SW,230,0.0,0.0,87,0.00,,,0.00,Wunderground v.1.15,2013-01-05 13:11:00,
2013-01-05 08:13:00,14.0,10.8,30.40,SW,230,0.0,0.0,87,0.00,,,0.00,Wunderground v.1.15,2013-01-05 13:13:00,
2013-01-05 08:15:00,14.0,10.8,30.40,SW,230,0.0,0.0,87,0.00,,,0.00,Wunderground v.1.15,2013-01-05 13:15:00,
2013-01-05 08:18:00,14.1,10.9,30.40,SW,230,0.0,0.0,87,0.00,,,0.00,Wunderground v.1.15,2013-01-05 13:18:00,
2013-01-05 08:20:00,14.3,11.1,30.40,SW,230,0.0,0.0,87,0.00,,,0.00,Wunderground v.1.15,2013-01-05 13:20:00,
2013-01-05 08:23:00,14.5,11.3,30.40,SW,230,0.0,0.0,87,0.00,,,0.00,Wunderground v.1.15,2013-01-05 13:23:00,
2013-01-05 08:25:00,14.6,11.4,30.40,SW,230,0.0,0.0,87,0.00,,,0.00,Wunderground v.1.15,2013-01-05 13:25:00,
2013-01-05 08:27:00,14.6,11.4,30.40,SW,230,0.0,0.0,87,0.00,,,0.00,Wunderground v.1.15,2013-01-05 13:27:00,
2013-01-05 08:28:00,14.8,11.6,30.40,SW,230,0.0,0.0,87,0.00,,,0.00,Wunderground v.1.15,2013-01-05 13:28:00,
2013-01-05 08:31:00,14.9,11.7,30.40,SW,230,0.0,0.0,87,0.00,,,0.00,Wunderground v.1.15,2013-01-05 13:31:00,
2013-01-05 08:33:00,15.1,11.9,30.40,SW,230,0.0,0.0,87,0.00,,,0.00,Wunderground v.1.15,2013-01-05 13:33:00,
2013-01-05 08:35:00,15.3,12.1,30.40,SW,230,0.0,0.0,87,0.00,,,0.00,Wunderground v.1.15,2013-01-05 13:35:00,
2013-01-05 08:39:00,15.6,12.7,30.40,SW,230,0.0,0.0,88,0.00,,,0.00,Wunderground v.1.15,2013-01-05 13:39:00,
2013-01-05 08:40:00,15.6,12.7,30.40,SW,230,0.0,0.0,88,0.00,,,0.00,Wunderground v.1.15,2013-01-05 13:40:00,
2013-01-05 08:41:00,15.7,12.8,30.40,SW,230,0.0,0.0,88,0.00,,,0.00,Wunderground v.1.15,2013-01-05 13:41:00,
2013-01-05 08:44:00,16.4,13.5,30.40,SW,230,0.0,0.0,88,0.00,,,0.00,Wunderground v.1.15,2013-01-05 13:44:00,
2013-01-05 08:45:00,16.4,13.5,30.40,SW,230,0.0,0.0,88,0.00,,,0.00,Wunderground v.1.15,2013-01-05 13:45:00,
2013-01-05 08:46:00,16.6,13.7,30.40,SW,230,0.0,0.0,88,0.00,,,0.00,Wunderground v.1.15,2013-01-05 13:46:00,
2013-01-05 08:50:00,16.9,14.0,30.40,SW,230,0.0,0.0,88,0.00,,,0.00,Wunderground v.1.15,2013-01-05 13:50:00,
2013-01-05 08:51:00,17.0,14.1,30.40,SW,230,0.0,0.0,88,0.00,,,0.00,Wunderground v.1.15,2013-01-05 13:51:00,
2013-01-05 08:55:00,17.2,14.3,30.40,SW,230,0.0,0.0,88,0.00,,,0.00,Wunderground v.1.15,2013-01-05 13:55:00,
2013-01-05 08:58:00,17.5,14.6,30.40,SW,230,0.0,0.0,88,0.00,,,0.00,Wunderground v.1.15,2013-01-05 13:58:00,
2013-01-05 08:59:00,17.7,14.8,30.40,SW,230,0.0,0.0,88,0.00,,,0.00,Wunderground v.1.15,2013-01-05 13:59:00,
2013-01-05 09:00:00,17.7,14.8,30.40,SW,230,0.0,0.0,88,0.00,,,0.00,Wunderground v.1.15,2013-01-05 14:00:00,
2013-01-05 09:02:00,17.8,14.8,30.40,SW,230,0.0,0.0,88,0.00,,,0.00,Wunderground v.1.15,2013-01-05 14:02:00,
2013-01-05 09:06:00,18.3,15.3,30.40,SW,230,0.0,0.0,88,0.00,,,0.00,Wunderground v.1.15,2013-01-05 14:06:00,
2013-01-05 09:07:00,18.3,15.3,30.40,SW,230,0.0,0.0,88,0.00,,,0.00,Wunderground v.1.15,2013-01-05 14:07:00,
2013-01-05 09:12:00,18.9,16.2,30.40,SW,230,0.0,0.0,89,0.00,,,0.00,Wunderground v.1.15,2013-01-05 14:12:00,
2013-01-05 09:13:00,19.1,16.4,30.40,SW,230,0.0,0.0,89,0.00,,,0.00,Wunderground v.1.15,2013-01-05 14:13:00,
2013-01-05 09:14:00,19.1,16.4,30.40,SW,230,0.0,0.0,89,0.00,,,0.00,Wunderground v.1.15,2013-01-05 14:14:00,
2013-01-05 09:18:00,19.4,16.7,30.40,SW,230,0.0,0.0,89,0.00,,,0.00,Wunderground v.1.15,2013-01-05 14:18:00,
2013-01-05 09:19:00,19.4,16.7,30.40,SW,230,0.0,0.0,89,0.00,,,0.00,Wunderground v.1.15,2013-01-05 14:19:00,
2013-01-05 09:20:00,19.6,16.9,30.40,SW,230,0.0,0.0,89,0.00,,,0.00,Wunderground v.1.15,2013-01-05 14:20:00,
2013-01-05 09:21:00,19.6,16.9,30.40,SW,230,0.0,0.0,89,0.00,,,0.00,Wunderground v.1.15,2013-01-05 14:21:00,
2013-01-05 09:26:00,19.9,17.2,30.40,SW,230,0.0,0.0,89,0.00,,,0.00,Wunderground v.1.15,2013-01-05 14:26:00,
2013-01-05 09:27:00,20.0,17.3,30.40,SW,230,0.0,0.0,89,0.00,,,0.00,Wunderground v.1.15,2013-01-05 14:27:00,
2013-01-05 09:30:00,20.4,17.7,30.40,SW,230,0.0,0.0,89,0.00,,,0.00,Wunderground v.1.15,2013-01-05 14:30:00,
2013-01-05 09:31:00,20.4,17.7,30.40,SW,230,0.0,0.0,89,0.00,,,0.00,Wunderground v.1.15,2013-01-05 14:31:00,
2013-01-05 09:34:00,21.0,18.3,30.40,SW,230,0.0,0.0,89,0.00,,,0.00,Wunderground v.1.15,2013-01-05 14:34:00,
2013-01-05 09:36:00,21.3,18.6,30.40,SW,230,0.0,0.0,89,0.00,,,0.00,Wunderground v.1.15,2013-01-05 14:36:00,
2013-01-05 09:37:00,21.5,18.8,30.40,SW,230,0.0,0.0,89,0.00,,,0.00,Wunderground v.1.15,2013-01-05 14:37:00,
2013-01-05 09:38:00,21.8,19.1,30.40,SW,230,0.0,0.0,89,0.00,,,0.00,Wunderground v.1.15,2013-01-05 14:38:00,
2013-01-05 09:42:00,22.3,19.6,30.40,SW,230,0.0,0.0,89,0.00,,,0.00,Wunderground v.1.15,2013-01-05 14:42:00,
2013-01-05 09:44:00,22.4,19.6,30.40,SW,230,0.0,0.0,89,0.00,,,0.00,Wunderground v.1.15,2013-01-05 14:44:00,
2013-01-05 09:46:00,22.4,19.6,30.40,SW,230,0.0,0.0,89,0.00,,,0.00,Wunderground v.1.15,2013-01-05 14:46:00,
2013-01-05 09:47:00,22.4,19.4,30.40,SW,230,0.0,0.0,88,0.00,,,0.00,Wunderground v.1.15,2013-01-05 14:47:00,
2013-01-05 09:48:00,22.6,19.8,30.40,SW,230,0.0,0.0,89,0.00,,,0.00,Wunderground v.1.15,2013-01-05 14:48:00,
2013-01-05 09:51:00,22.9,20.1,30.40,SW,230,0.0,0.0,89,0.00,,,0.00,Wunderground v.1.15,2013-01-05 14:51:00,
2013-01-05 09:52:00,23.0,20.2,30.40,SW,230,0.0,0.0,89,0.00,,,0.00,Wunderground v.1.15,2013-01-05 14:52:00,
2013-01-05 09:55:00,23.7,20.9,30.40,SW,230,0.0,0.0,89,0.00,,,0.00,Wunderground v.1.15,2013-01-05 14:55:00,
2013-01-05 09:56:00,23.8,21.3,30.40,SW,230,0.0,0.0,90,0.00,,,0.00,Wunderground v.1.15,2013-01-05 14:56:00,
2013-01-05 09:57:00,24.0,21.2,30.40,SW,230,0.0,0.0,89,0.00,,,0.00,Wunderground v.1.15,2013-01-05 14:57:00,
2013-01-05 10:02:00,24.9,22.4,30.39,SW,230,0.0,0.0,90,0.00,,,0.00,Wunderground v.1.15,2013-01-05 15:02:00,
2013-01-05 10:03:00,25.0,22.5,30.39,SW,230,0.0,0.0,90,0.00,,,0.00,Wunderground v.1.15,2013-01-05 15:03:00,
2013-01-05 10:04:00,25.2,22.7,30.39,SW,230,0.0,0.0,90,0.00,,,0.00,Wunderground v.1.15,2013-01-05 15:04:00,
2013-01-05 10:07:00,25.5,23.0,30.39,SW,230,0.0,0.0,90,0.00,,,0.00,Wunderground v.1.15,2013-01-05 15:07:00,
2013-01-05 10:08:00,25.6,23.1,30.39,SW,230,0.0,0.0,90,0.00,,,0.00,Wunderground v.1.15,2013-01-05 15:08:00,
2013-01-05 10:10:00,25.9,23.4,30.39,SW,230,0.0,0.0,90,0.00,,,0.00,Wunderground v.1.15,2013-01-05 15:10:00,
2013-01-05 10:14:00,26.3,23.8,30.39,SW,230,0.0,0.0,90,0.00,,,0.00,Wunderground v.1.15,2013-01-05 15:14:00,
2013-01-05 10:15:00,26.5,24.0,30.39,SW,230,0.0,0.0,90,0.00,,,0.00,Wunderground v.1.15,2013-01-05 15:15:00,
2013-01-05 10:17:00,26.6,23.8,30.39,SW,230,0.0,0.0,89,0.00,,,0.00,Wunderground v.1.15,2013-01-05 15:17:00,
2013-01-05 10:18:00,26.8,24.0,30.39,SW,230,0.0,0.0,89,0.00,,,0.00,Wunderground v.1.15,2013-01-05 15:18:00,
2013-01-05 10:20:00,26.9,24.1,30.39,SW,230,0.0,0.0,89,0.00,,,0.00,Wunderground v.1.15,2013-01-05 15:20:00,
2013-01-05 10:23:00,27.4,24.6,30.39,SW,230,0.0,0.0,89,0.00,,,0.00,Wunderground v.1.15,2013-01-05 15:23:00,
2013-01-05 10:24:00,27.4,24.6,30.39,SW,230,0.0,0.0,89,0.00,,,0.00,Wunderground v.1.15,2013-01-05 15:24:00,
2013-01-05 10:26:00,27.7,24.9,30.39,SW,230,0.0,0.0,89,0.00,,,0.00,Wunderground v.1.15,2013-01-05 15:26:00,
2013-01-05 10:31:00,28.6,25.8,30.39,SW,230,0.0,0.0,89,0.00,,,0.00,Wunderground v.1.15,2013-01-05 15:31:00,
2013-01-05 10:33:00,28.9,26.1,30.39,SW,230,0.0,0.0,89,0.00,,,0.00,Wunderground v.1.15,2013-01-05 15:33:00,
2013-01-05 10:34:00,29.0,25.9,30.39,SW,230,0.0,0.0,88,0.00,,,0.00,Wunderground v.1.15,2013-01-05 15:34:00,
2013-01-05 10:37:00,29.6,26.5,30.39,SW,230,0.0,0.0,88,0.00,,,0.00,Wunderground v.1.15,2013-01-05 15:37:00,
2013-01-05 10:39:00,30.0,26.9,30.39,SW,230,0.0,0.0,88,0.00,,,0.00,Wunderground v.1.15,2013-01-05 15:39:00,
2013-01-05 10:40:00,30.3,26.9,30.39,SW,230,0.0,0.0,87,0.00,,,0.00,Wunderground v.1.15,2013-01-05 15:40:00,
2013-01-05 10:42:00,30.6,27.2,30.39,SW,230,0.0,0.0,87,0.00,,,0.00,Wunderground v.1.15,2013-01-05 15:42:00,
2013-01-05 10:43:00,30.9,27.5,30.39,SW,230,0.0,1.0,87,0.00,,,0.00,Wunderground v.1.15,2013-01-05 15:43:00,
2013-01-05 10:45:00,32.0,27.7,30.37,SW,223,0.0,2.0,84,0.00,,,0.00,Wunderground v.1.15,2013-01-05 15:45:00,
2013-01-05 10:47:00,32.3,27.7,30.37,SW,222,0.0,2.0,83,0.00,,,0.00,Wunderground v.1.15,2013-01-05 15:47:00,
2013-01-05 10:49:00,32.9,27.4,30.37,SW,222,1.0,2.0,80,0.00,,,0.00,Wunderground v.1.15,2013-01-05 15:49:00,
2013-01-05 10:53:00,33.6,26.8,30.37,SW,222,1.0,1.0,76,0.00,,,0.00,Wunderground v.1.15,2013-01-05 15:53:00,
2013-01-05 10:55:00,33.9,26.8,30.37,SW,222,1.0,1.0,75,0.00,,,0.00,Wunderground v.1.15,2013-01-05 15:55:00,
2013-01-05 10:58:00,34.0,26.6,30.37,SW,222,0.0,1.0,74,0.00,,,0.00,Wunderground v.1.15,2013-01-05 15:58:00,
2013-01-05 11:00:00,34.3,26.9,30.36,SW,222,0.0,0.0,74,0.00,,,0.00,Wunderground v.1.15,2013-01-05 16:00:00,
2013-01-05 11:02:00,34.6,27.2,30.36,SW,222,0.0,0.0,74,0.00,,,0.00,Wunderground v.1.15,2013-01-05 16:02:00,
2013-01-05 11:05:00,35.2,27.1,30.36,SW,222,0.0,1.0,72,0.00,,,0.00,Wunderground v.1.15,2013-01-05 16:05:00,
2013-01-05 11:07:00,35.4,26.6,30.36,SW,222,0.0,3.0,70,0.00,,,0.00,Wunderground v.1.15,2013-01-05 16:07:00,
2013-01-05 11:10:00,34.9,26.1,30.36,South,172,1.0,1.0,70,0.00,,,0.00,Wunderground v.1.15,2013-01-05 16:10:00,
2013-01-05 11:11:00,34.9,26.1,30.36,South,172,1.0,1.0,70,0.00,,,0.00,Wunderground v.1.15,2013-01-05 16:11:00,
2013-01-05 11:14:00,35.1,26.3,30.36,South,172,1.0,1.0,70,0.00,,,0.00,Wunderground v.1.15,2013-01-05 16:14:00,
2013-01-05 11:15:00,35.1,26.3,30.37,South,172,1.0,1.0,70,0.00,,,0.00,Wunderground v.1.15,2013-01-05 16:15:00,
2013-01-05 11:17:00,34.9,26.1,30.37,South,172,1.0,3.0,70,0.00,,,0.00,Wunderground v.1.15,2013-01-05 16:17:00,
2013-01-05 11:19:00,34.9,26.1,30.37,South,172,1.0,3.0,70,0.00,,,0.00,Wunderground v.1.15,2013-01-05 16:19:00,
2013-01-05 11:20:00,34.9,26.1,30.37,SSE,152,1.0,5.0,70,0.00,,,0.00,Wunderground v.1.15,2013-01-05 16:20:00,
2013-01-05 11:23:00,34.9,26.1,30.37,SSE,152,2.0,5.0,70,0.00,,,0.00,Wunderground v.1.15,2013-01-05 16:23:00,
2013-01-05 11:24:00,34.9,26.1,30.37,SSE,152,2.0,5.0,70,0.00,,,0.00,Wunderground v.1.15,2013-01-05 16:24:00,
2013-01-05 11:26:00,35.1,25.9,30.37,SSE,152,2.0,5.0,69,0.00,,,0.00,Wunderground v.1.15,2013-01-05 16:26:00,
2013-01-05 11:28:00,35.2,26.0,30.37,SSE,152,2.0,5.0,69,0.00,,,0.00,Wunderground v.1.15,2013-01-05 16:28:00,
2013-01-05 11:29:00,35.4,26.2,30.37,SSE,152,2.0,5.0,69,0.00,,,0.00,Wunderground v.1.15,2013-01-05 16:29:00,
2013-01-05 11:31:00,35.7,26.2,30.37,SSE,152,1.0,1.0,68,0.00,,,0.00,Wunderground v.1.15,2013-01-05 16:31:00,
2013-01-05 11:32:00,36.1,26.2,30.37,South,172,1.0,2.0,67,0.00,,,0.00,Wunderground v.1.15,2013-01-05 16:32:00,
2013-01-05 11:36:00,36.8,26.1,30.37,SW,219,1.0,4.0,65,0.00,,,0.00,Wunderground v.1.15,2013-01-05 16:36:00,
2013-01-05 11:39:00,37.4,25.9,30.37,SSW,202,1.0,6.0,63,0.00,,,0.00,Wunderground v.1.15,2013-01-05 16:39:00,
2013-01-05 11:42:00,37.7,25.8,30.37,SSW,212,3.0,5.0,62,0.00,,,0.00,Wunderground v.1.15,2013-01-05 16:42:00,
2013-01-05 11:44:00,37.7,25.8,30.37,SSW,198,4.0,8.0,62,0.00,,,0.00,Wunderground v.1.15,2013-01-05 16:44:00,
2013-01-05 11:45:00,37.5,25.7,30.37,SSW,199,4.0,9.0,62,0.00,,,0.00,Wunderground v.1.15,2013-01-05 16:45:00,
2013-01-05 11:50:00,37.3,25.8,30.37,SSW,192,7.0,12.0,63,0.00,,,0.00,Wunderground v.1.15,2013-01-05 16:50:00,
2013-01-05 11:51:00,37.3,25.8,30.37,WSW,239,7.0,12.0,63,0.00,,,0.00,Wunderground v.1.15,2013-01-05 16:51:00,
2013-01-05 11:52:00,37.3,25.8,30.37,SW,226,8.0,12.0,63,0.00,,,0.00,Wunderground v.1.15,2013-01-05 16:52:00,
2013-01-05 11:54:00,37.3,25.8,30.37,SSW,202,8.0,12.0,63,0.00,,,0.00,Wunderground v.1.15,2013-01-05 16:54:00,
2013-01-05 11:55:00,37.3,25.8,30.37,SSW,209,8.0,12.0,63,0.00,,,0.00,Wunderground v.1.15,2013-01-05 16:55:00,
2013-01-05 11:56:00,37.3,26.2,30.37,WSW,251,7.0,12.0,64,0.00,,,0.00,Wunderground v.1.15,2013-01-05 16:56:00,
2013-01-05 11:59:00,37.3,25.8,30.37,SSW,205,6.0,12.0,63,0.00,,,0.00,Wunderground v.1.15,2013-01-05 16:59:00,
2013-01-05 12:00:00,37.3,25.8,30.36,SSW,210,6.0,6.0,63,0.00,,,0.00,Wunderground v.1.15,2013-01-05 17:00:00,
2013-01-05 12:03:00,37.4,25.9,30.36,WSW,254,5.0,6.0,63,0.00,,,0.00,Wunderground v.1.15,2013-01-05 17:03:00,
2013-01-05 12:04:00,37.5,26.0,30.36,SSW,212,6.0,10.0,63,0.00,,,0.00,Wunderground v.1.15,2013-01-05 17:04:00,
2013-01-05 12:07:00,37.7,26.2,30.36,WSW,241,6.0,10.0,63,0.00,,,0.00,Wunderground v.1.15,2013-01-05 17:07:00,
2013-01-05 12:08:00,37.7,26.6,30.36,SW,224,6.0,10.0,64,0.00,,,0.00,Wunderground v.1.15,2013-01-05 17:08:00,
2013-01-05 12:11:00,37.8,25.9,30.36,WSW,257,6.0,10.0,62,0.00,,,0.00,Wunderground v.1.15,2013-01-05 17:11:00,
2013-01-05 12:12:00,37.8,25.9,30.36,SW,236,7.0,10.0,62,0.00,,,0.00,Wunderground v.1.15,2013-01-05 17:12:00,
2013-01-05 12:13:00,37.8,25.9,30.36,WSW,243,7.0,10.0,62,0.00,,,0.00,Wunderground v.1.15,2013-01-05 17:13:00,
2013-01-05 12:14:00,37.8,26.3,30.36,WSW,243,7.0,10.0,63,0.00,,,0.00,Wunderground v.1.15,2013-01-05 17:14:00,
2013-01-05 12:16:00,38.0,26.1,30.35,SW,217,6.0,12.0,62,0.00,,,0.00,Wunderground v.1.15,2013-01-05 17:16:00,
2013-01-05 12:19:00,38.1,26.2,30.35,WSW,256,7.0,12.0,62,0.00,,,0.00,Wunderground v.1.15,2013-01-05 17:19:00,
2013-01-05 12:20:00,38.1,26.2,30.35,SW,236,7.0,7.0,62,0.00,,,0.00,Wunderground v.1.15,2013-01-05 17:20:00,
2013-01-05 12:22:00,38.3,26.4,30.35,SW,220,7.0,11.0,62,0.00,,,0.00,Wunderground v.1.15,2013-01-05 17:22:00,
2013-01-05 12:24:00,38.3,26.0,30.35,SW,227,7.0,11.0,61,0.00,,,0.00,Wunderground v.1.15,2013-01-05 17:24:00,
2013-01-05 12:25:00,38.3,26.0,30.35,SW,234,7.0,11.0,61,0.00,,,0.00,Wunderground v.1.15,2013-01-05 17:25:00,
2013-01-05 12:27:00,38.3,26.0,30.35,SW,222,7.0,11.0,61,0.00,,,0.00,Wunderground v.1.15,2013-01-05 17:27:00,
2013-01-05 12:29:00,38.4,26.5,30.35,SSW,212,7.0,11.0,62,0.00,,,0.00,Wunderground v.1.15,2013-01-05 17:29:00,
2013-01-05 12:30:00,38.5,26.2,30.34,WSW,243,7.0,7.0,61,0.00,,,0.00,Wunderground v.1.15,2013-01-05 17:30:00,
2013-01-05 12:32:00,38.5,25.8,30.34,West,270,6.0,7.0,60,0.00,,,0.00,Wunderground v.1.15,2013-01-05 17:32:00,
2013-01-05 12:33:00,38.5,25.8,30.34,SSW,209,6.0,7.0,60,0.00,,,0.00,Wunderground v.1.15,2013-01-05 17:33:00,
2013-01-05 12:36:00,38.8,26.5,30.34,SSW,210,5.0,7.0,61,0.00,,,0.00,Wunderground v.1.15,2013-01-05 17:36:00,
2013-01-05 12:39:00,39.0,26.3,30.34,West,281,4.0,7.0,60,0.00,,,0.00,Wunderground v.1.15,2013-01-05 17:39:00,
2013-01-05 12:41:00,39.1,26.4,30.34,SW,223,4.0,6.0,60,0.00,,,0.00,Wunderground v.1.15,2013-01-05 17:41:00,
2013-01-05 12:43:00,39.3,26.6,30.34,SW,220,4.0,6.0,60,0.00,,,0.00,Wunderground v.1.15,2013-01-05 17:43:00,
2013-01-05 12:46:00,39.3,25.7,30.33,SSW,213,4.0,8.0,58,0.00,,,0.00,Wunderground v.1.15,2013-01-05 17:46:00,
2013-01-05 12:47:00,39.4,26.2,30.33,SW,220,4.0,8.0,59,0.00,,,0.00,Wunderground v.1.15,2013-01-05 17:47:00,
2013-01-05 12:49:00,39.4,25.8,30.33,WSW,253,5.0,8.0,58,0.00,,,0.00,Wunderground v.1.15,2013-01-05 17:49:00,
2013-01-05 12:51:00,39.4,25.4,30.33,SW,222,5.0,7.0,57,0.00,,,0.00,Wunderground v.1.15,2013-01-05 17:51:00,
2013-01-05 12:54:00,39.6,26.4,30.33,SW,229,5.0,7.0,59,0.00,,,0.00,Wunderground v.1.15,2013-01-05 17:54:00,
2013-01-05 12:56:00,39.7,25.7,30.33,SW,229,4.0,7.0,57,0.00,,,0.00,Wunderground v.1.15,2013-01-05 17:56:00,
2013-01-05 12:57:00,39.8,26.2,30.33,SW,234,4.0,7.0,58,0.00,,,0.00,Wunderground v.1.15,2013-01-05 17:57:00,
2013-01-05 13:02:00,40.1,26.1,30.31,SSW,212,3.0,6.0,57,0.00,,,0.00,Wunderground v.1.15,2013-01-05 18:02:00,
2013-01-05 13:03:00,40.1,26.1,30.31,SW,224,3.0,7.0,57,0.00,,,0.00,Wunderground v.1.15,2013-01-05 18:03:00,
2013-01-05 13:05:00,40.1,25.6,30.31,SW,227,3.0,7.0,56,0.00,,,0.00,Wunderground v.1.15,2013-01-05 18:05:00,
2013-01-05 13:07:00,40.3,26.3,30.31,SW,216,3.0,7.0,57,0.00,,,0.00,Wunderground v.1.15,2013-01-05 18:07:00,
2013-01-05 13:09:00,40.3,25.8,30.31,South,188,3.0,8.0,56,0.00,,,0.00,Wunderground v.1.15,2013-01-05 18:09:00,
2013-01-05 13:11:00,40.3,25.4,30.31,SSW,198,4.0,5.0,55,0.00,,,0.00,Wunderground v.1.15,2013-01-05 18:11:00,
2013-01-05 13:13:00,40.3,25.4,30.31,SW,232,4.0,5.0,55,0.00,,,0.00,Wunderground v.1.15,2013-01-05 18:13:00,
2013-01-05 13:14:00,40.3,25.0,30.31,SW,222,4.0,5.0,54,0.00,,,0.00,Wunderground v.1.15,2013-01-05 18:14:00,
2013-01-05 13:17:00,40.3,25.0,30.30,SW,222,4.0,6.0,54,0.00,,,0.00,Wunderground v.1.15,2013-01-05 18:17:00,
2013-01-05 13:18:00,40.4,25.1,30.30,SW,220,4.0,6.0,54,0.00,,,0.00,Wunderground v.1.15,2013-01-05 18:18:00,
2013-01-05 13:19:00,40.4,25.5,30.30,SW,220,4.0,6.0,55,0.00,,,0.00,Wunderground v.1.15,2013-01-05 18:19:00,
2013-01-05 13:22:00,40.6,24.8,30.30,SW,222,3.0,8.0,53,0.00,,,0.00,Wunderground v.1.15,2013-01-05 18:22:00,
2013-01-05 13:27:00,40.6,24.3,30.30,WSW,237,3.0,8.0,52,0.00,,,0.00,Wunderground v.1.15,2013-01-05 18:27:00,
2013-01-05 13:29:00,40.6,24.3,30.30,WSW,241,4.0,9.0,52,0.00,,,0.00,Wunderground v.1.15,2013-01-05 18:29:00,
2013-01-05 13:33:00,40.6,23.9,30.29,WSW,243,4.0,6.0,51,0.00,,,0.00,Wunderground v.1.15,2013-01-05 18:33:00,
2013-01-05 13:34:00,40.4,24.1,30.29,WSW,257,4.0,6.0,52,0.00,,,0.00,Wunderground v.1.15,2013-01-05 18:34:00,
2013-01-05 13:38:00,40.4,23.7,30.29,SW,230,4.0,7.0,51,0.00,,,0.00,Wunderground v.1.15,2013-01-05 18:38:00,
2013-01-05 13:39:00,40.4,24.1,30.29,SW,226,4.0,7.0,52,0.00,,,0.00,Wunderground v.1.15,2013-01-05 18:39:00,
2013-01-05 13:42:00,40.4,24.1,30.29,SW,236,4.0,4.0,52,0.00,,,0.00,Wunderground v.1.15,2013-01-05 18:42:00,
2013-01-05 13:43:00,40.4,24.1,30.29,SW,234,4.0,4.0,52,0.00,,,0.00,Wunderground v.1.15,2013-01-05 18:43:00,
2013-01-05 13:44:00,40.6,24.8,30.29,SW,234,4.0,4.0,53,0.00,,,0.00,Wunderground v.1.15,2013-01-05 18:44:00,
2013-01-05 13:47:00,40.6,24.8,30.29,SW,230,4.0,4.0,53,0.00,,,0.00,Wunderground v.1.15,2013-01-05 18:47:00,
2013-01-05 13:48:00,40.6,24.8,30.29,SW,230,3.0,4.0,53,0.00,,,0.00,Wunderground v.1.15,2013-01-05 18:48:00,
2013-01-05 13:49:00,40.6,24.8,30.29,SW,233,3.0,4.0,53,0.00,,,0.00,Wunderground v.1.15,2013-01-05 18:49:00,
2013-01-05 13:51:00,40.7,24.9,30.29,SSW,205,2.0,9.0,53,0.00,,,0.00,Wunderground v.1.15,2013-01-05 18:51:00,
2013-01-05 13:54:00,40.7,23.5,30.29,SW,224,3.0,13.0,50,0.00,,,0.00,Wunderground v.1.15,2013-01-05 18:54:00,
2013-01-05 13:56:00,40.7,23.5,30.29,SW,234,4.0,13.0,50,0.00,,,0.00,Wunderground v.1.15,2013-01-05 18:56:00,
2013-01-05 13:57:00,40.7,24.0,30.29,SW,217,5.0,13.0,51,0.00,,,0.00,Wunderground v.1.15,2013-01-05 18:57:00,
2013-01-05 13:59:00,40.6,23.9,30.29,West,263,6.0,13.0,51,0.00,,,0.00,Wunderground v.1.15,2013-01-05 18:59:00,
2013-01-05 14:02:00,40.6,23.9,30.28,SW,233,6.0,7.0,51,0.00,,,0.00,Wunderground v.1.15,2013-01-05 19:02:00,
2013-01-05 14:03:00,40.6,23.4,30.28,SW,229,6.0,7.0,50,0.00,,,0.00,Wunderground v.1.15,2013-01-05 19:03:00,
2013-01-05 14:04:00,40.6,23.9,30.28,West,268,6.0,7.0,51,0.00,,,0.00,Wunderground v.1.15,2013-01-05 19:04:00,
2013-01-05 14:06:00,40.6,23.9,30.28,West,261,5.0,7.0,51,0.00,,,0.00,Wunderground v.1.15,2013-01-05 19:06:00,
2013-01-05 14:08:00,40.6,24.3,30.28,WSW,257,4.0,7.0,52,0.00,,,0.00,Wunderground v.1.15,2013-01-05 19:08:00,
2013-01-05 14:12:00,40.6,23.9,30.28,WSW,246,4.0,5.0,51,0.00,,,0.00,Wunderground v.1.15,2013-01-05 19:12:00,
2013-01-05 14:13:00,40.4,23.7,30.28,WSW,240,3.0,5.0,51,0.00,,,0.00,Wunderground v.1.15,2013-01-05 19:13:00,
2013-01-05 14:14:00,40.4,23.7,30.28,SW,234,3.0,6.0,51,0.00,,,0.00,Wunderground v.1.15,2013-01-05 19:14:00,
2013-01-05 14:15:00,40.4,23.7,30.28,SW,232,3.0,6.0,51,0.00,,,0.00,Wunderground v.1.15,2013-01-05 19:15:00,
2013-01-05 14:17:00,40.4,23.7,30.28,SW,217,4.0,7.0,51,0.00,,,0.00,Wunderground v.1.15,2013-01-05 19:17:00,
2013-01-05 14:20:00,40.4,24.1,30.28,SW,229,4.0,4.0,52,0.00,,,0.00,Wunderground v.1.15,2013-01-05 19:20:00,
2013-01-05 14:21:00,40.4,24.1,30.28,SW,217,4.0,4.0,52,0.00,,,0.00,Wunderground v.1.15,2013-01-05 19:21:00,
2013-01-05 14:22:00,40.4,24.6,30.28,SW,216,4.0,4.0,53,0.00,,,0.00,Wunderground v.1.15,2013-01-05 19:22:00,
2013-01-05 14:23:00,40.4,24.6,30.28,SW,216,3.0,4.0,53,0.00,,,0.00,Wunderground v.1.15,2013-01-05 19:23:00,
2013-01-05 14:26:00,40.4,24.6,30.28,SW,223,4.0,7.0,53,0.00,,,0.00,Wunderground v.1.15,2013-01-05 19:26:00,
2013-01-05 14:28:00,40.4,25.1,30.28,SW,222,3.0,7.0,54,0.00,,,0.00,Wunderground v.1.15,2013-01-05 19:28:00,
2013-01-05 14:29:00,40.4,24.6,30.28,SW,222,3.0,7.0,53,0.00,,,0.00,Wunderground v.1.15,2013-01-05 19:29:00,
2013-01-05 14:31:00,40.4,24.6,30.26,SW,215,2.0,3.0,53,0.00,,,0.00,Wunderground v.1.15,2013-01-05 19:31:00,
2013-01-05 14:32:00,40.4,24.6,30.26,SW,220,2.0,3.0,53,0.00,,,0.00,Wunderground v.1.15,2013-01-05 19:32:00,
2013-01-05 14:36:00,40.4,25.1,30.26,SSW,212,2.0,4.0,54,0.00,,,0.00,Wunderground v.1.15,2013-01-05 19:36:00,
2013-01-05 14:39:00,40.3,25.0,30.26,SW,223,3.0,5.0,54,0.00,,,0.00,Wunderground v.1.15,2013-01-05 19:39:00,
2013-01-05 14:42:00,40.1,24.3,30.26,South,185,4.0,8.0,53,0.00,,,0.00,Wunderground v.1.15,2013-01-05 19:42:00,
2013-01-05 14:44:00,40.0,23.8,30.26,SW,217,5.0,8.0,52,0.00,,,0.00,Wunderground v.1.15,2013-01-05 19:44:00,
2013-01-05 14:47:00,40.0,24.2,30.27,SSW,212,6.0,10.0,53,0.00,,,0.00,Wunderground v.1.15,2013-01-05 19:47:00,
2013-01-05 14:48:00,40.0,24.2,30.27,SW,232,7.0,10.0,53,0.00,,,0.00,Wunderground v.1.15,2013-01-05 19:48:00,
2013-01-05 14:49:00,40.0,24.2,30.27,SW,216,7.0,10.0,53,0.00,,,0.00,Wunderground v.1.15,2013-01-05 19:49:00,
2013-01-05 14:53:00,40.0,24.7,30.27,SW,220,6.0,8.0,54,0.00,,,0.00,Wunderground v.1.15,2013-01-05 19:53:00,
2013-01-05 14:54:00,40.0,24.7,30.27,SSW,196,5.0,8.0,54,0.00,,,0.00,Wunderground v.1.15,2013-01-05 19:54:00,
2013-01-05 14:58:00,39.8,24.5,30.27,SW,217,5.0,10.0,54,0.00,,,0.00,Wunderground v.1.15,2013-01-05 19:58:00,
2013-01-05 14:59:00,39.8,24.5,30.27,SSW,195,5.0,10.0,54,0.00,,,0.00,Wunderground v.1.15,2013-01-05 19:59:00,
2013-01-05 15:01:00,39.8,24.5,30.27,SW,222,6.0,6.0,54,0.00,,,0.00,Wunderground v.1.15,2013-01-05 20:01:00,
2013-01-05 15:04:00,39.8,24.9,30.27,SW,220,6.0,6.0,55,0.00,,,0.00,Wunderground v.1.15,2013-01-05 20:04:00,
2013-01-05 15:06:00,39.8,24.9,30.27,SW,220,5.0,6.0,55,0.00,,,0.00,Wunderground v.1.15,2013-01-05 20:06:00,
2013-01-05 15:10:00,39.7,25.3,30.27,SSW,199,2.0,2.0,56,0.00,,,0.00,Wunderground v.1.15,2013-01-05 20:10:00,
2013-01-05 15:11:00,39.7,25.3,30.27,SSW,200,2.0,3.0,56,0.00,,,0.00,Wunderground v.1.15,2013-01-05 20:11:00,
2013-01-05 15:12:00,39.7,25.7,30.27,SW,229,2.0,3.0,57,0.00,,,0.00,Wunderground v.1.15,2013-01-05 20:12:00,
2013-01-05 15:14:00,39.7,25.7,30.27,SW,222,2.0,4.0,57,0.00,,,0.00,Wunderground v.1.15,2013-01-05 20:14:00,
2013-01-05 15:16:00,39.6,25.6,30.27,SSW,196,2.0,6.0,57,0.00,,,0.00,Wunderground v.1.15,2013-01-05 20:16:00,
2013-01-05 15:22:00,39.4,25.8,30.27,SW,216,3.0,5.0,58,0.00,,,0.00,Wunderground v.1.15,2013-01-05 20:22:00,
2013-01-05 15:23:00,39.4,25.8,30.27,SW,230,3.0,6.0,58,0.00,,,0.00,Wunderground v.1.15,2013-01-05 20:23:00,
2013-01-05 15:26:00,39.3,25.7,30.27,SSW,212,3.0,6.0,58,0.00,,,0.00,Wunderground v.1.15,2013-01-05 20:26:00,
2013-01-05 15:27:00,39.3,26.2,30.27,SW,222,3.0,6.0,59,0.00,,,0.00,Wunderground v.1.15,2013-01-05 20:27:00,
2013-01-05 15:28:00,39.3,26.2,30.27,SSW,205,3.0,7.0,59,0.00,,,0.00,Wunderground v.1.15,2013-01-05 20:28:00,
2013-01-05 15:29:00,39.1,26.0,30.27,SSW,205,4.0,4.0,59,0.00,,,0.00,Wunderground v.1.15,2013-01-05 20:29:00,
2013-01-05 15:31:00,39.1,26.0,30.27,SSW,212,4.0,4.0,59,0.00,,,0.00,Wunderground v.1.15,2013-01-05 20:31:00,
2013-01-05 15:33:00,39.1,26.0,30.27,SW,220,4.0,4.0,59,0.00,,,0.00,Wunderground v.1.15,2013-01-05 20:33:00,
2013-01-05 15:35:00,39.1,26.0,30.27,SSW,206,3.0,5.0,59,0.00,,,0.00,Wunderground v.1.15,2013-01-05 20:35:00,
2013-01-05 15:36:00,39.1,26.0,30.27,SSW,212,4.0,5.0,59,0.00,,,0.00,Wunderground v.1.15,2013-01-05 20:36:00,
2013-01-05 15:41:00,39.1,26.0,30.27,SSW,213,4.0,5.0,59,0.00,,,0.00,Wunderground v.1.15,2013-01-05 20:41:00,
2013-01-05 15:43:00,39.1,26.0,30.27,SW,217,4.0,7.0,59,0.00,,,0.00,Wunderground v.1.15,2013-01-05 20:43:00,
2013-01-05 15:46:00,39.0,26.3,30.28,SSW,193,4.0,7.0,60,0.00,,,0.00,Wunderground v.1.15,2013-01-05 20:46:00,
2013-01-05 15:48:00,39.0,26.3,30.28,SW,226,4.0,7.0,60,0.00,,,0.00,Wunderground v.1.15,2013-01-05 20:48:00,
2013-01-05 15:49:00,39.0,26.3,30.28,SW,219,4.0,7.0,60,0.00,,,0.00,Wunderground v.1.15,2013-01-05 20:49:00,
2013-01-05 15:50:00,39.0,26.3,30.28,SSW,208,4.0,4.0,60,0.00,,,0.00,Wunderground v.1.15,2013-01-05 20:50:00,
2013-01-05 15:52:00,39.0,26.3,30.28,SW,216,3.0,6.0,60,0.00,,,0.00,Wunderground v.1.15,2013-01-05 20:52:00,
2013-01-05 15:55:00,38.8,26.5,30.28,SSW,196,3.0,7.0,61,0.00,,,0.00,Wunderground v.1.15,2013-01-05 20:55:00,
2013-01-05 15:56:00,38.8,26.1,30.28,SW,215,4.0,7.0,60,0.00,,,0.00,Wunderground v.1.15,2013-01-05 20:56:00,
2013-01-05 15:57:00,38.8,26.1,30.28,SW,222,4.0,7.0,60,0.00,,,0.00,Wunderground v.1.15,2013-01-05 20:57:00,
2013-01-05 16:02:00,38.8,26.5,30.28,SSW,203,5.0,5.0,61,0.00,,,0.00,Wunderground v.1.15,2013-01-05 21:02:00,
2013-01-05 16:03:00,38.8,26.1,30.28,SW,219,5.0,5.0,60,0.00,,,0.00,Wunderground v.1.15,2013-01-05 21:03:00,
2013-01-05 16:04:00,38.8,26.5,30.28,SSW,200,6.0,6.0,61,0.00,,,0.00,Wunderground v.1.15,2013-01-05 21:04:00,
2013-01-05 16:08:00,38.8,26.5,30.28,SW,227,4.0,6.0,61,0.00,,,0.00,Wunderground v.1.15,2013-01-05 21:08:00,
2013-01-05 16:11:00,38.7,26.8,30.28,SW,229,3.0,4.0,62,0.00,,,0.00,Wunderground v.1.15,2013-01-05 21:11:00,
2013-01-05 16:15:00,38.7,26.8,30.27,SW,227,2.0,6.0,62,0.00,,,0.00,Wunderground v.1.15,2013-01-05 21:15:00,
2013-01-05 16:16:00,38.7,26.8,30.27,WSW,237,2.0,6.0,62,0.00,,,0.00,Wunderground v.1.15,2013-01-05 21:16:00,
2013-01-05 16:19:00,38.5,26.6,30.27,SW,236,3.0,6.0,62,0.00,,,0.00,Wunderground v.1.15,2013-01-05 21:19:00,
2013-01-05 16:21:00,38.5,26.6,30.27,WSW,251,3.0,3.0,62,0.00,,,0.00,Wunderground v.1.15,2013-01-05 21:21:00,
2013-01-05 16:22:00,38.5,27.0,30.27,WSW,251,3.0,3.0,63,0.00,,,0.00,Wunderground v.1.15,2013-01-05 21:22:00,
2013-01-05 16:25:00,38.5,27.0,30.27,West,265,2.0,5.0,63,0.00,,,0.00,Wunderground v.1.15,2013-01-05 21:25:00,
2013-01-05 16:27:00,38.5,26.6,30.27,WSW,240,2.0,5.0,62,0.00,,,0.00,Wunderground v.1.15,2013-01-05 21:27:00,
2013-01-05 16:28:00,38.5,27.0,30.27,West,281,2.0,5.0,63,0.00,,,0.00,Wunderground v.1.15,2013-01-05 21:28:00,
2013-01-05 16:29:00,38.5,27.0,30.27,WSW,250,3.0,5.0,63,0.00,,,0.00,Wunderground v.1.15,2013-01-05 21:29:00,
2013-01-05 16:30:00,38.4,27.3,30.28,WSW,256,3.0,3.0,64,0.00,,,0.00,Wunderground v.1.15,2013-01-05 21:30:00,
2013-01-05 16:32:00,38.4,27.3,30.28,NNW,330,3.0,3.0,64,0.00,,,0.00,Wunderground v.1.15,2013-01-05 21:32:00,
2013-01-05 16:35:00,38.3,27.6,30.28,WSW,247,4.0,7.0,65,0.00,,,0.00,Wunderground v.1.15,2013-01-05 21:35:00,
2013-01-05 16:36:00,38.1,27.4,30.28,West,264,4.0,7.0,65,0.00,,,0.00,Wunderground v.1.15,2013-01-05 21:36:00,
2013-01-05 16:37:00,38.1,27.7,30.28,WSW,241,4.0,7.0,66,0.00,,,0.00,Wunderground v.1.15,2013-01-05 21:37:00,
2013-01-05 16:41:00,38.0,28.0,30.28,West,271,3.0,3.0,67,0.00,,,0.00,Wunderground v.1.15,2013-01-05 21:41:00,
2013-01-05 16:42:00,38.0,28.0,30.28,West,280,3.0,3.0,67,0.00,,,0.00,Wunderground v.1.15,2013-01-05 21:42:00,
2013-01-05 16:44:00,37.8,27.8,30.28,West,261,2.0,3.0,67,0.00,,,0.00,Wunderground v.1.15,2013-01-05 21:44:00,
2013-01-05 16:47:00,37.7,27.7,30.28,WSW,243,2.0,5.0,67,0.00,,,0.00,Wunderground v.1.15,2013-01-05 21:47:00,
2013-01-05 16:48:00,37.7,28.1,30.28,WSW,239,3.0,5.0,68,0.00,,,0.00,Wunderground v.1.15,2013-01-05 21:48:00,
2013-01-05 16:49:00,37.7,28.1,30.28,WNW,289,3.0,5.0,68,0.00,,,0.00,Wunderground v.1.15,2013-01-05 21:49:00,
2013-01-05 16:50:00,37.7,27.7,30.28,West,267,3.0,3.0,67,0.00,,,0.00,Wunderground v.1.15,2013-01-05 21:50:00,
2013-01-05 16:55:00,37.7,27.7,30.28,West,260,3.0,7.0,67,0.00,,,0.00,Wunderground v.1.15,2013-01-05 21:55:00,
2013-01-05 16:56:00,37.7,28.1,30.28,West,260,3.0,7.0,68,0.00,,,0.00,Wunderground v.1.15,2013-01-05 21:56:00,
2013-01-05 16:57:00,37.7,28.1,30.28,West,260,2.0,7.0,68,0.00,,,0.00,Wunderground v.1.15,2013-01-05 21:57:00,
2013-01-05 17:02:00,37.5,27.9,30.27,SW,229,1.0,2.0,68,0.00,,,0.00,Wunderground v.1.15,2013-01-05 22:02:00,
2013-01-05 17:03:00,37.5,27.9,30.27,SW,230,1.0,2.0,68,0.00,,,0.00,Wunderground v.1.15,2013-01-05 22:03:00,
2013-01-05 17:04:00,37.5,27.9,30.27,SW,230,1.0,2.0,68,0.00,,,0.00,Wunderground v.1.15,2013-01-05 22:04:00,
2013-01-05 17:07:00,37.5,28.2,30.27,SW,222,1.0,4.0,69,0.00,,,0.00,Wunderground v.1.15,2013-01-05 22:07:00,
2013-01-05 17:08:00,37.7,28.4,30.27,SW,224,1.0,4.0,69,0.00,,,0.00,Wunderground v.1.15,2013-01-05 22:08:00,
2013-01-05 17:11:00,37.7,28.1,30.27,SW,227,1.0,3.0,68,0.00,,,0.00,Wunderground v.1.15,2013-01-05 22:11:00,
2013-01-05 17:13:00,37.5,27.9,30.27,SW,230,2.0,3.0,68,0.00,,,0.00,Wunderground v.1.15,2013-01-05 22:13:00,
2013-01-05 17:15:00,37.5,27.9,30.27,SW,230,2.0,3.0,68,0.00,,,0.00,Wunderground v.1.15,2013-01-05 22:15:00,
2013-01-05 17:16:00,37.5,27.9,30.27,SW,230,2.0,3.0,68,0.00,,,0.00,Wunderground v.1.15,2013-01-05 22:16:00,
2013-01-05 17:20:00,37.5,27.9,30.27,SW,230,1.0,1.0,68,0.00,,,0.00,Wunderground v.1.15,2013-01-05 22:20:00,
2013-01-05 17:21:00,37.5,27.9,30.27,SW,230,1.0,1.0,68,0.00,,,0.00,Wunderground v.1.15,2013-01-05 22:21:00,
2013-01-05 17:23:00,37.5,27.9,30.27,SW,227,1.0,3.0,68,0.00,,,0.00,Wunderground v.1.15,2013-01-05 22:23:00,
2013-01-05 17:25:00,37.5,28.2,30.27,SSW,210,1.0,3.0,69,0.00,,,0.00,Wunderground v.1.15,2013-01-05 22:25:00,
2013-01-05 17:26:00,37.5,28.2,30.27,SW,216,1.0,3.0,69,0.00,,,0.00,Wunderground v.1.15,2013-01-05 22:26:00,
2013-01-05 17:29:00,37.5,27.9,30.27,SW,216,1.0,3.0,68,0.00,,,0.00,Wunderground v.1.15,2013-01-05 22:29:00,
2013-01-05 17:31:00,37.5,28.2,30.25,SW,216,1.0,1.0,69,0.00,,,0.00,Wunderground v.1.15,2013-01-05 22:31:00,
2013-01-05 17:34:00,37.5,27.9,30.25,SW,216,1.0,1.0,68,0.00,,,0.00,Wunderground v.1.15,2013-01-05 22:34:00,
2013-01-05 17:37:00,37.5,28.2,30.25,SW,216,0.0,1.0,69,0.00,,,0.00,Wunderground v.1.15,2013-01-05 22:37:00,
2013-01-05 17:38:00,37.5,27.9,30.25,SW,216,0.0,1.0,68,0.00,,,0.00,Wunderground v.1.15,2013-01-05 22:38:00,
2013-01-05 17:39:00,37.5,27.9,30.25,SW,216,0.0,1.0,68,0.00,,,0.00,Wunderground v.1.15,2013-01-05 22:39:00,
2013-01-05 17:44:00,37.5,28.6,30.25,SW,216,0.0,0.0,70,0.00,,,0.00,Wunderground v.1.15,2013-01-05 22:44:00,
2013-01-05 17:45:00,37.5,28.6,30.25,SW,216,0.0,0.0,70,0.00,,,0.00,Wunderground v.1.15,2013-01-05 22:45:00,
2013-01-05 17:48:00,37.4,28.2,30.25,SW,216,0.0,0.0,69,0.00,,,0.00,Wunderground v.1.15,2013-01-05 22:48:00,
2013-01-05 17:49:00,37.4,27.8,30.25,SW,216,0.0,0.0,68,0.00,,,0.00,Wunderground v.1.15,2013-01-05 22:49:00,
2013-01-05 17:50:00,37.4,27.8,30.25,SW,216,0.0,0.0,68,0.00,,,0.00,Wunderground v.1.15,2013-01-05 22:50:00,
2013-01-05 17:51:00,37.4,27.8,30.25,SW,216,0.0,0.0,68,0.00,,,0.00,Wunderground v.1.15,2013-01-05 22:51:00,
2013-01-05 17:54:00,37.3,28.1,30.25,SW,216,0.0,0.0,69,0.00,,,0.00,Wunderground v.1.15,2013-01-05 22:54:00,
2013-01-05 17:56:00,37.1,27.9,30.25,SW,216,0.0,0.0,69,0.00,,,0.00,Wunderground v.1.15,2013-01-05 22:56:00,
2013-01-05 17:59:00,36.8,27.6,30.25,SW,216,0.0,0.0,69,0.00,,,0.00,Wunderground v.1.15,2013-01-05 22:59:00,
2013-01-05 18:04:00,36.4,27.5,30.25,SW,216,0.0,0.0,70,0.00,,,0.00,Wunderground v.1.15,2013-01-05 23:04:00,
2013-01-05 18:10:00,36.1,27.3,30.25,SW,216,0.0,0.0,70,0.00,,,0.00,Wunderground v.1.15,2013-01-05 23:10:00,
2013-01-05 18:11:00,36.0,27.2,30.25,SW,216,0.0,0.0,70,0.00,,,0.00,Wunderground v.1.15,2013-01-05 23:11:00,
2013-01-05 18:12:00,36.0,27.5,30.25,SW,216,0.0,0.0,71,0.00,,,0.00,Wunderground v.1.15,2013-01-05 23:12:00,
2013-01-05 18:16:00,35.4,27.3,30.25,SW,216,0.0,0.0,72,0.00,,,0.00,Wunderground v.1.15,2013-01-05 23:16:00,
2013-01-05 18:18:00,35.1,27.3,30.25,SW,216,0.0,0.0,73,0.00,,,0.00,Wunderground v.1.15,2013-01-05 23:18:00,
2013-01-05 18:20:00,34.9,27.1,30.25,SW,216,0.0,0.0,73,0.00,,,0.00,Wunderground v.1.15,2013-01-05 23:20:00,
2013-01-05 18:22:00,34.8,27.0,30.25,SW,216,0.0,0.0,73,0.00,,,0.00,Wunderground v.1.15,2013-01-05 23:22:00,
2013-01-05 18:23:00,34.6,26.8,30.25,SW,216,0.0,0.0,73,0.00,,,0.00,Wunderground v.1.15,2013-01-05 23:23:00,
2013-01-05 18:27:00,34.6,26.8,30.25,SW,216,0.0,0.0,73,0.00,,,0.00,Wunderground v.1.15,2013-01-05 23:27:00,
2013-01-05 18:28:00,34.6,26.8,30.25,SW,216,0.0,0.0,73,0.00,,,0.00,Wunderground v.1.15,2013-01-05 23:28:00,
2013-01-05 18:34:00,34.5,27.4,30.26,SW,216,0.0,0.0,75,0.00,,,0.00,Wunderground v.1.15,2013-01-05 23:34:00,
2013-01-05 18:36:00,34.6,27.5,30.26,SW,216,0.0,0.0,75,0.00,,,0.00,Wunderground v.1.15,2013-01-05 23:36:00,
2013-01-05 18:37:00,34.8,28.0,30.26,SW,216,0.0,0.0,76,0.00,,,0.00,Wunderground v.1.15,2013-01-05 23:37:00,
2013-01-05 18:39:00,34.8,27.7,30.26,SW,216,0.0,0.0,75,0.00,,,0.00,Wunderground v.1.15,2013-01-05 23:39:00,
2013-01-05 18:40:00,34.8,27.7,30.26,SW,216,0.0,0.0,75,0.00,,,0.00,Wunderground v.1.15,2013-01-05 23:40:00,
2013-01-05 18:45:00,34.8,27.0,30.26,SW,216,0.0,0.0,73,0.00,,,0.00,Wunderground v.1.15,2013-01-05 23:45:00,
2013-01-05 18:46:00,34.8,27.0,30.26,SW,216,0.0,0.0,73,0.00,,,0.00,Wunderground v.1.15,2013-01-05 23:46:00,
2013-01-05 18:51:00,34.8,27.0,30.26,SW,216,0.0,0.0,73,0.00,,,0.00,Wunderground v.1.15,2013-01-05 23:51:00,
2013-01-05 18:53:00,34.6,26.8,30.26,SW,216,0.0,0.0,73,0.00,,,0.00,Wunderground v.1.15,2013-01-05 23:53:00,
2013-01-05 18:56:00,34.5,26.7,30.26,SW,216,0.0,0.0,73,0.00,,,0.00,Wunderground v.1.15,2013-01-05 23:56:00,
2013-01-05 18:58:00,34.3,26.5,30.26,SW,216,0.0,0.0,73,0.00,,,0.00,Wunderground v.1.15,2013-01-05 23:58:00,
2013-01-05 19:00:00,34.3,26.5,30.26,SW,216,0.0,0.0,73,0.00,,,0.00,Wunderground v.1.15,2013-01-06 00:00:00,
2013-01-05 19:01:00,34.2,26.4,30.26,SW,216,0.0,0.0,73,0.00,,,0.00,Wunderground v.1.15,2013-01-06 00:01:00,
2013-01-05 19:03:00,34.2,26.8,30.26,SW,216,0.0,0.0,74,0.00,,,0.00,Wunderground v.1.15,2013-01-06 00:03:00,
2013-01-05 19:06:00,34.2,26.8,30.26,SW,216,0.0,0.0,74,0.00,,,0.00,Wunderground v.1.15,2013-01-06 00:06:00,
2013-01-05 19:08:00,34.0,26.6,30.26,SW,216,0.0,0.0,74,0.00,,,0.00,Wunderground v.1.15,2013-01-06 00:08:00,
2013-01-05 19:12:00,34.0,26.6,30.26,SW,216,0.0,0.0,74,0.00,,,0.00,Wunderground v.1.15,2013-01-06 00:12:00,
2013-01-05 19:13:00,34.0,26.6,30.26,SW,216,0.0,0.0,74,0.00,,,0.00,Wunderground v.1.15,2013-01-06 00:13:00,
2013-01-05 19:15:00,34.0,26.6,30.27,SW,216,0.0,0.0,74,0.00,,,0.00,Wunderground v.1.15,2013-01-06 00:15:00,
2013-01-05 19:18:00,33.7,26.3,30.27,SW,216,0.0,0.0,74,0.00,,,0.00,Wunderground v.1.15,2013-01-06 00:18:00,
2013-01-05 19:19:00,33.7,26.6,30.27,SW,216,0.0,0.0,75,0.00,,,0.00,Wunderground v.1.15,2013-01-06 00:19:00,
2013-01-05 19:22:00,33.4,26.6,30.27,SW,216,0.0,0.0,76,0.00,,,0.00,Wunderground v.1.15,2013-01-06 00:22:00,
2013-01-05 19:25:00,33.3,26.5,30.27,SW,216,0.0,0.0,76,0.00,,,0.00,Wunderground v.1.15,2013-01-06 00:25:00,
2013-01-05 19:27:00,33.0,26.3,30.27,SW,216,0.0,0.0,76,0.00,,,0.00,Wunderground v.1.15,2013-01-06 00:27:00,
2013-01-05 19:29:00,32.7,26.3,30.27,SW,216,0.0,0.0,77,0.00,,,0.00,Wunderground v.1.15,2013-01-06 00:29:00,
2013-01-05 19:33:00,32.3,25.9,30.26,SW,216,0.0,0.0,77,0.00,,,0.00,Wunderground v.1.15,2013-01-06 00:33:00,
2013-01-05 19:35:00,32.3,26.2,30.26,SW,216,0.0,0.0,78,0.00,,,0.00,Wunderground v.1.15,2013-01-06 00:35:00,
2013-01-05 19:39:00,32.1,26.0,30.26,SW,216,0.0,0.0,78,0.00,,,0.00,Wunderground v.1.15,2013-01-06 00:39:00,
2013-01-05 19:40:00,32.1,26.0,30.26,SW,216,0.0,0.0,78,0.00,,,0.00,Wunderground v.1.15,2013-01-06 00:40:00,
2013-01-05 19:41:00,32.1,26.0,30.26,SW,216,0.0,0.0,78,0.00,,,0.00,Wunderground v.1.15,2013-01-06 00:41:00,
2013-01-05 19:44:00,32.1,26.0,30.26,SW,216,0.0,0.0,78,0.00,,,0.00,Wunderground v.1.15,2013-01-06 00:44:00,
2013-01-05 19:47:00,32.0,25.9,30.27,SW,216,0.0,0.0,78,0.00,,,0.00,Wunderground v.1.15,2013-01-06 00:47:00,
2013-01-05 19:48:00,32.0,26.2,30.27,SW,216,0.0,0.0,79,0.00,,,0.00,Wunderground v.1.15,2013-01-06 00:48:00,
2013-01-05 19:49:00,32.0,26.2,30.27,SW,216,0.0,0.0,79,0.00,,,0.00,Wunderground v.1.15,2013-01-06 00:49:00,
2013-01-05 19:53:00,32.0,26.2,30.27,SW,216,0.0,0.0,79,0.00,,,0.00,Wunderground v.1.15,2013-01-06 00:53:00,
2013-01-05 19:54:00,32.1,26.3,30.27,SW,216,0.0,0.0,79,0.00,,,0.00,Wunderground v.1.15,2013-01-06 00:54:00,
2013-01-05 19:58:00,32.3,26.2,30.27,SW,216,0.0,0.0,78,0.00,,,0.00,Wunderground v.1.15,2013-01-06 00:58:00,
2013-01-05 20:00:00,32.3,26.2,30.26,SW,216,0.0,0.0,78,0.00,,,0.00,Wunderground v.1.15,2013-01-06 01:00:00,
2013-01-05 20:01:00,32.3,26.2,30.26,SW,216,0.0,0.0,78,0.00,,,0.00,Wunderground v.1.15,2013-01-06 01:01:00,
2013-01-05 20:04:00,32.3,26.5,30.26,SW,215,0.0,0.0,79,0.00,,,0.00,Wunderground v.1.15,2013-01-06 01:04:00,
2013-01-05 20:06:00,32.6,26.5,30.26,SW,217,0.0,2.0,78,0.00,,,0.00,Wunderground v.1.15,2013-01-06 01:06:00,
2013-01-05 20:08:00,32.7,26.6,30.26,SW,217,0.0,2.0,78,0.00,,,0.00,Wunderground v.1.15,2013-01-06 01:08:00,
2013-01-05 20:09:00,32.9,26.8,30.26,SW,217,0.0,2.0,78,0.00,,,0.00,Wunderground v.1.15,2013-01-06 01:09:00,
2013-01-05 20:11:00,33.2,26.8,30.26,SSW,203,1.0,4.0,77,0.00,,,0.00,Wunderground v.1.15,2013-01-06 01:11:00,
2013-01-05 20:16:00,33.9,27.1,30.25,SSW,203,1.0,4.0,76,0.00,,,0.00,Wunderground v.1.15,2013-01-06 01:16:00,
2013-01-05 20:18:00,34.0,26.9,30.25,SSW,205,1.0,4.0,75,0.00,,,0.00,Wunderground v.1.15,2013-01-06 01:18:00,
2013-01-05 20:21:00,34.2,27.1,30.25,SSW,205,1.0,1.0,75,0.00,,,0.00,Wunderground v.1.15,2013-01-06 01:21:00,
2013-01-05 20:22:00,34.2,26.8,30.25,SSW,205,0.0,1.0,74,0.00,,,0.00,Wunderground v.1.15,2013-01-06 01:22:00,
2013-01-05 20:24:00,34.2,26.8,30.25,SSW,205,0.0,2.0,74,0.00,,,0.00,Wunderground v.1.15,2013-01-06 01:24:00,
2013-01-05 20:25:00,34.3,26.9,30.25,SSW,200,0.0,2.0,74,0.00,,,0.00,Wunderground v.1.15,2013-01-06 01:25:00,
2013-01-05 20:27:00,34.3,26.9,30.25,SSW,200,0.0,2.0,74,0.00,,,0.00,Wunderground v.1.15,2013-01-06 01:27:00,
2013-01-05 20:29:00,34.5,27.1,30.25,SW,216,1.0,3.0,74,0.00,,,0.00,Wunderground v.1.15,2013-01-06 01:29:00,
2013-01-05 20:33:00,34.6,27.2,30.25,SW,216,1.0,1.0,74,0.00,,,0.00,Wunderground v.1.15,2013-01-06 01:33:00,
2013-01-05 20:34:00,34.6,27.2,30.25,SW,216,1.0,1.0,74,0.00,,,0.00,Wunderground v.1.15,2013-01-06 01:34:00,
2013-01-05 20:36:00,34.6,27.2,30.25,SSW,205,1.0,3.0,74,0.00,,,0.00,Wunderground v.1.15,2013-01-06 01:36:00,
2013-01-05 20:38:00,34.8,27.4,30.25,SSW,205,1.0,3.0,74,0.00,,,0.00,Wunderground v.1.15,2013-01-06 01:38:00,
2013-01-05 20:41:00,34.9,27.1,30.25,SSW,205,1.0,3.0,73,0.00,,,0.00,Wunderground v.1.15,2013-01-06 01:41:00,
2013-01-05 20:43:00,34.9,27.1,30.25,SSW,208,1.0,3.0,73,0.00,,,0.00,Wunderground v.1.15,2013-01-06 01:43:00,
2013-01-05 20:46:00,35.1,27.3,30.25,SSW,205,1.0,5.0,73,0.00,,,0.00,Wunderground v.1.15,2013-01-06 01:46:00,
2013-01-05 20:47:00,35.1,27.3,30.25,SSW,205,1.0,5.0,73,0.00,,,0.00,Wunderground v.1.15,2013-01-06 01:47:00,
2013-01-05 20:52:00,35.2,27.4,30.25,SSW,206,1.0,1.0,73,0.00,,,0.00,Wunderground v.1.15,2013-01-06 01:52:00,
2013-01-05 20:53:00,35.2,27.4,30.25,SSW,206,1.0,1.0,73,0.00,,,0.00,Wunderground v.1.15,2013-01-06 01:53:00,
2013-01-05 20:58:00,35.4,27.6,30.25,SW,219,1.0,2.0,73,0.00,,,0.00,Wunderground v.1.15,2013-01-06 01:58:00,
2013-01-05 20:59:00,35.4,27.3,30.25,SW,219,1.0,2.0,72,0.00,,,0.00,Wunderground v.1.15,2013-01-06 01:59:00,
2013-01-05 21:00:00,35.5,27.7,30.25,SW,219,1.0,1.0,73,0.00,,,0.00,Wunderground v.1.15,2013-01-06 02:00:00,
2013-01-05 21:04:00,35.5,27.7,30.25,SW,222,1.0,1.0,73,0.00,,,0.00,Wunderground v.1.15,2013-01-06 02:04:00,
2013-01-05 21:05:00,35.5,27.4,30.25,SW,222,1.0,1.0,72,0.00,,,0.00,Wunderground v.1.15,2013-01-06 02:05:00,
2013-01-05 21:07:00,35.5,27.4,30.25,SW,222,0.0,1.0,72,0.00,,,0.00,Wunderground v.1.15,2013-01-06 02:07:00,
2013-01-05 21:10:00,35.7,27.6,30.25,SW,223,0.0,0.0,72,0.00,,,0.00,Wunderground v.1.15,2013-01-06 02:10:00,
2013-01-05 21:11:00,35.7,27.6,30.25,SSW,210,0.0,0.0,72,0.00,,,0.00,Wunderground v.1.15,2013-01-06 02:11:00,
2013-01-05 21:14:00,35.7,27.6,30.25,SSW,210,0.0,0.0,72,0.00,,,0.00,Wunderground v.1.15,2013-01-06 02:14:00,
2013-01-05 21:15:00,35.7,27.6,30.24,SSW,210,0.0,0.0,72,0.00,,,0.00,Wunderground v.1.15,2013-01-06 02:15:00,
2013-01-05 21:17:00,35.7,27.6,30.24,SW,216,0.0,1.0,72,0.00,,,0.00,Wunderground v.1.15,2013-01-06 02:17:00,
2013-01-05 21:20:00,35.7,27.6,30.24,SW,216,0.0,0.0,72,0.00,,,0.00,Wunderground v.1.15,2013-01-06 02:20:00,
2013-01-05 21:22:00,35.5,27.4,30.24,SW,215,0.0,2.0,72,0.00,,,0.00,Wunderground v.1.15,2013-01-06 02:22:00,
2013-01-05 21:24:00,35.7,27.6,30.24,SW,215,0.0,4.0,72,0.00,,,0.00,Wunderground v.1.15,2013-01-06 02:24:00,
2013-01-05 21:25:00,35.7,27.6,30.24,SW,215,0.0,4.0,72,0.00,,,0.00,Wunderground v.1.15,2013-01-06 02:25:00,
2013-01-05 21:30:00,35.7,27.6,30.23,SW,216,0.0,0.0,72,0.00,,,0.00,Wunderground v.1.15,2013-01-06 02:30:00,
2013-01-05 21:31:00,35.5,27.4,30.23,SW,216,0.0,0.0,72,0.00,,,0.00,Wunderground v.1.15,2013-01-06 02:31:00,
2013-01-05 21:36:00,35.5,27.4,30.23,SSW,210,0.0,2.0,72,0.00,,,0.00,Wunderground v.1.15,2013-01-06 02:36:00,
2013-01-05 21:37:00,35.5,27.4,30.23,SSW,210,0.0,2.0,72,0.00,,,0.00,Wunderground v.1.15,2013-01-06 02:37:00,
2013-01-05 21:41:00,35.4,27.3,30.23,SSW,200,0.0,0.0,72,0.00,,,0.00,Wunderground v.1.15,2013-01-06 02:41:00,
2013-01-05 21:45:00,35.1,27.0,30.23,SSW,200,0.0,0.0,72,0.00,,,0.00,Wunderground v.1.15,2013-01-06 02:45:00,
2013-01-05 21:46:00,35.1,27.0,30.23,SSW,200,0.0,0.0,72,0.00,,,0.00,Wunderground v.1.15,2013-01-06 02:46:00,
2013-01-05 21:51:00,34.9,27.1,30.23,SSW,203,0.0,0.0,73,0.00,,,0.00,Wunderground v.1.15,2013-01-06 02:51:00,
2013-01-05 21:53:00,34.9,27.1,30.23,SSW,203,0.0,0.0,73,0.00,,,0.00,Wunderground v.1.15,2013-01-06 02:53:00,
2013-01-05 21:56:00,34.8,27.0,30.23,SSW,203,0.0,0.0,73,0.00,,,0.00,Wunderground v.1.15,2013-01-06 02:56:00,
2013-01-05 21:57:00,34.8,27.0,30.23,SSW,203,0.0,0.0,73,0.00,,,0.00,Wunderground v.1.15,2013-01-06 02:57:00,
2013-01-05 21:59:00,34.8,27.0,30.23,SSW,203,0.0,0.0,73,0.00,,,0.00,Wunderground v.1.15,2013-01-06 02:59:00,
2013-01-05 22:00:00,34.9,27.5,30.23,SSW,203,0.0,0.0,74,0.00,,,0.00,Wunderground v.1.15,2013-01-06 03:00:00,
2013-01-05 22:02:00,34.9,27.5,30.23,SSW,203,0.0,0.0,74,0.00,,,0.00,Wunderground v.1.15,2013-01-06 03:02:00,
2013-01-05 22:05:00,34.9,27.1,30.23,SSW,202,0.0,0.0,73,0.00,,,0.00,Wunderground v.1.15,2013-01-06 03:05:00,
2013-01-05 22:06:00,34.9,27.1,30.23,SSW,205,0.0,0.0,73,0.00,,,0.00,Wunderground v.1.15,2013-01-06 03:06:00,
2013-01-05 22:08:00,34.8,27.0,30.23,SSW,205,0.0,0.0,73,0.00,,,0.00,Wunderground v.1.15,2013-01-06 03:08:00,
2013-01-05 22:11:00,34.6,26.8,30.23,SSW,205,0.0,2.0,73,0.00,,,0.00,Wunderground v.1.15,2013-01-06 03:11:00,
2013-01-05 22:12:00,34.6,26.8,30.23,SSW,205,0.0,2.0,73,0.00,,,0.00,Wunderground v.1.15,2013-01-06 03:12:00,
2013-01-05 22:15:00,34.6,27.2,30.22,SSW,205,0.0,2.0,74,0.00,,,0.00,Wunderground v.1.15,2013-01-06 03:15:00,
2013-01-05 22:17:00,34.6,27.2,30.22,SSW,205,0.0,2.0,74,0.00,,,0.00,Wunderground v.1.15,2013-01-06 03:17:00,
2013-01-05 22:18:00,34.6,27.2,30.22,SSW,205,0.0,2.0,74,0.00,,,0.00,Wunderground v.1.15,2013-01-06 03:18:00,
2013-01-05 22:19:00,34.6,27.2,30.22,SSW,205,0.0,2.0,74,0.00,,,0.00,Wunderground v.1.15,2013-01-06 03:19:00,
2013-01-05 22:22:00,34.6,27.2,30.22,SSW,205,0.0,0.0,74,0.00,,,0.00,Wunderground v.1.15,2013-01-06 03:22:00,
2013-01-05 22:24:00,34.6,27.2,30.22,SSW,205,0.0,0.0,74,0.00,,,0.00,Wunderground v.1.15,2013-01-06 03:24:00,
2013-01-05 22:27:00,34.5,27.1,30.22,SSW,205,0.0,0.0,74,0.00,,,0.00,Wunderground v.1.15,2013-01-06 03:27:00,
2013-01-05 22:28:00,34.6,27.2,30.22,SSW,205,0.0,0.0,74,0.00,,,0.00,Wunderground v.1.15,2013-01-06 03:28:00,
2013-01-05 22:30:00,34.6,27.2,30.22,SSW,205,0.0,0.0,74,0.00,,,0.00,Wunderground v.1.15,2013-01-06 03:30:00,
2013-01-05 22:32:00,34.5,27.1,30.22,SSW,205,0.0,0.0,74,0.00,,,0.00,Wunderground v.1.15,2013-01-06 03:32:00,
2013-01-05 22:34:00,34.5,27.1,30.22,SSW,208,0.0,0.0,74,0.00,,,0.00,Wunderground v.1.15,2013-01-06 03:34:00,
2013-01-05 22:35:00,34.5,27.1,30.22,SSW,208,0.0,0.0,74,0.00,,,0.00,Wunderground v.1.15,2013-01-06 03:35:00,
2013-01-05 22:36:00,34.5,27.1,30.22,SSW,208,0.0,2.0,74,0.00,,,0.00,Wunderground v.1.15,2013-01-06 03:36:00,
2013-01-05 22:37:00,34.6,27.2,30.22,SSW,199,0.0,5.0,74,0.00,,,0.00,Wunderground v.1.15,2013-01-06 03:37:00,
2013-01-05 22:39:00,34.6,27.2,30.22,SSW,199,0.0,5.0,74,0.00,,,0.00,Wunderground v.1.15,2013-01-06 03:39:00,
2013-01-05 22:43:00,34.8,27.4,30.22,SSW,200,0.0,2.0,74,0.00,,,0.00,Wunderground v.1.15,2013-01-06 03:43:00,
2013-01-05 22:44:00,34.8,27.4,30.22,SSW,200,0.0,2.0,74,0.00,,,0.00,Wunderground v.1.15,2013-01-06 03:44:00,
2013-01-05 22:49:00,34.9,27.5,30.21,SSW,200,0.0,2.0,74,0.00,,,0.00,Wunderground v.1.15,2013-01-06 03:49:00,
2013-01-05 22:51:00,35.1,27.6,30.21,SSW,193,1.0,3.0,74,0.00,,,0.00,Wunderground v.1.15,2013-01-06 03:51:00,
2013-01-05 22:53:00,35.1,27.6,30.21,SSW,193,1.0,3.0,74,0.00,,,0.00,Wunderground v.1.15,2013-01-06 03:53:00,
2013-01-05 22:55:00,35.2,27.7,30.21,SSW,198,1.0,3.0,74,0.00,,,0.00,Wunderground v.1.15,2013-01-06 03:55:00,
2013-01-05 22:56:00,35.4,27.9,30.21,SSW,198,1.0,3.0,74,0.00,,,0.00,Wunderground v.1.15,2013-01-06 03:56:00,
2013-01-05 22:58:00,35.4,27.9,30.21,SSW,202,1.0,3.0,74,0.00,,,0.00,Wunderground v.1.15,2013-01-06 03:58:00,
2013-01-05 23:02:00,35.5,27.7,30.20,SSW,203,1.0,1.0,73,0.00,,,0.00,Wunderground v.1.15,2013-01-06 04:02:00,
2013-01-05 23:03:00,35.7,27.9,30.20,SSW,203,1.0,3.0,73,0.00,,,0.00,Wunderground v.1.15,2013-01-06 04:03:00,
2013-01-05 23:04:00,35.7,27.9,30.20,SSW,208,1.0,3.0,73,0.00,,,0.00,Wunderground v.1.15,2013-01-06 04:04:00,
2013-01-05 23:07:00,35.8,28.0,30.20,SSW,203,2.0,6.0,73,0.00,,,0.00,Wunderground v.1.15,2013-01-06 04:07:00,
2013-01-05 23:09:00,36.0,27.8,30.20,SW,223,2.0,6.0,72,0.00,,,0.00,Wunderground v.1.15,2013-01-06 04:09:00,
2013-01-05 23:12:00,36.0,27.8,30.20,SSW,210,3.0,3.0,72,0.00,,,0.00,Wunderground v.1.15,2013-01-06 04:12:00,
2013-01-05 23:13:00,36.1,27.9,30.20,SW,232,3.0,3.0,72,0.00,,,0.00,Wunderground v.1.15,2013-01-06 04:13:00,
2013-01-05 23:14:00,36.1,27.9,30.20,SW,232,3.0,3.0,72,0.00,,,0.00,Wunderground v.1.15,2013-01-06 04:14:00,
2013-01-05 23:18:00,36.3,28.1,30.20,SW,227,3.0,6.0,72,0.00,,,0.00,Wunderground v.1.15,2013-01-06 04:18:00,
2013-01-05 23:24:00,36.4,28.2,30.20,SW,227,3.0,5.0,72,0.00,,,0.00,Wunderground v.1.15,2013-01-06 04:24:00,
2013-01-05 23:25:00,36.4,28.2,30.20,SSW,212,3.0,5.0,72,0.00,,,0.00,Wunderground v.1.15,2013-01-06 04:25:00,
2013-01-05 23:26:00,36.4,28.2,30.20,SSW,213,3.0,5.0,72,0.00,,,0.00,Wunderground v.1.15,2013-01-06 04:26:00,
2013-01-05 23:29:00,36.4,28.2,30.20,SSW,213,2.0,5.0,72,0.00,,,0.00,Wunderground v.1.15,2013-01-06 04:29:00,
2013-01-05 23:30:00,36.4,28.2,30.19,SW,215,2.0,2.0,72,0.00,,,0.00,Wunderground v.1.15,2013-01-06 04:30:00,
2013-01-05 23:34:00,36.4,28.2,30.19,SW,223,1.0,2.0,72,0.00,,,0.00,Wunderground v.1.15,2013-01-06 04:34:00,
2013-01-05 23:35:00,36.4,28.2,30.19,South,175,1.0,2.0,72,0.00,,,0.00,Wunderground v.1.15,2013-01-06 04:35:00,
2013-01-05 23:39:00,36.4,28.2,30.19,SW,224,2.0,2.0,72,0.00,,,0.00,Wunderground v.1.15,2013-01-06 04:39:00,
2013-01-05 23:40:00,36.4,28.2,30.19,SSW,213,2.0,4.0,72,0.00,,,0.00,Wunderground v.1.15,2013-01-06 04:40:00,
2013-01-05 23:42:00,36.5,28.3,30.19,SSW,206,3.0,4.0,72,0.00,,,0.00,Wunderground v.1.15,2013-01-06 04:42:00,
2013-01-05 23:43:00,36.5,28.3,30.19,SW,217,3.0,4.0,72,0.00,,,0.00,Wunderground v.1.15,2013-01-06 04:43:00,
2013-01-05 23:47:00,36.5,28.3,30.19,SW,222,3.0,4.0,72,0.00,,,0.00,Wunderground v.1.15,2013-01-06 04:47:00,
2013-01-05 23:48:00,36.5,28.3,30.19,SW,223,3.0,4.0,72,0.00,,,0.00,Wunderground v.1.15,2013-01-06 04:48:00,
2013-01-05 23:54:00,36.7,28.5,30.19,SW,234,2.0,5.0,72,0.00,,,0.00,Wunderground v.1.15,2013-01-06 04:54:00,
2013-01-05 23:55:00,36.7,28.5,30.19,SW,229,3.0,5.0,72,0.00,,,0.00,Wunderground v.1.15,2013-01-06 04:55:00,
2013-01-05 23:57:00,36.7,28.5,30.19,SW,233,3.0,5.0,72,0.00,,,0.00,Wunderground v.1.15,2013-01-06 04:57:00,
2013-01-05 23:58:00,36.7,28.5,30.19,WSW,237,3.0,5.0,72,0.00,,,0.00,Wunderground v.1.15,2013-01-06 04:58:00,